Wetterdaten: Montag, 04.01.2016
Datum Zeit Temp. Aussen Temp. o. S. +5cm Feuchte Auss BlattFeu 1 Luftdruck Regen Sonnenschein Regendauer Solar Windben Empfang
04.01.2016 00:00 4,9 C 4,4 C 3,3 C 95 % 15 lf 990,3 hPa 0,0 l/m 0 min 2 min 0 W/m 23,0 km/h (4 Bft) 95,65 %
04.01.2016 00:02 4,9 C 4,4 C 3,3 C 95 % 15 lf 990,2 hPa 0,0 l/m 0 min 2 min 0 W/m 37,7 km/h (5 Bft) 94,12 %
04.01.2016 00:04 4,9 C 4,4 C 3,3 C 95 % 15 lf 990,2 hPa 0,0 l/m 0 min 2 min 0 W/m 25,1 km/h (4 Bft) 97,96 %
04.01.2016 00:06 4,9 C 4,4 C 3,3 C 95 % 15 lf 990,3 hPa 0,0 l/m 0 min 2 min 0 W/m 37,7 km/h (5 Bft) 97,87 %
04.01.2016 00:08 4,9 C 4,4 C 3,3 C 95 % 15 lf 990,2 hPa 0,2 l/m 0 min 2 min 0 W/m 37,7 km/h (5 Bft) 100,00 %
04.01.2016 00:10 4,9 C 4,4 C 3,3 C 95 % 15 lf 990,3 hPa 0,0 l/m 0 min 2 min 0 W/m 39,7 km/h (6 Bft) 97,87 %
04.01.2016 00:12 4,9 C 4,4 C 3,3 C 95 % 15 lf 990,1 hPa 0,0 l/m 0 min 2 min 0 W/m 31,4 km/h (5 Bft) 100,00 %
04.01.2016 00:14 4,9 C 4,4 C 3,3 C 95 % 15 lf 990,1 hPa 0,0 l/m 0 min 2 min 0 W/m 35,6 km/h (5 Bft) 100,00 %
04.01.2016 00:16 4,9 C 4,4 C 3,3 C 95 % 15 lf 990,1 hPa 0,2 l/m 0 min 2 min 0 W/m 31,4 km/h (5 Bft) 95,74 %
04.01.2016 00:18 4,9 C 4,4 C 3,3 C 95 % 15 lf 990,1 hPa 0,0 l/m 0 min 2 min 0 W/m 43,9 km/h (6 Bft) 97,87 %
04.01.2016 00:20 4,9 C 4,4 C 3,3 C 95 % 15 lf 990,1 hPa 0,0 l/m 0 min 2 min 0 W/m 33,5 km/h (5 Bft) 97,87 %
04.01.2016 00:22 4,9 C 4,4 C 3,3 C 95 % 15 lf 990,0 hPa 0,0 l/m 0 min 2 min 0 W/m 35,6 km/h (5 Bft) 100,00 %
04.01.2016 00:24 4,9 C 4,4 C 3,3 C 95 % 15 lf 990,1 hPa 0,0 l/m 0 min 2 min 0 W/m 46,0 km/h (6 Bft) 91,49 %
04.01.2016 00:26 4,8 C 4,4 C 3,3 C 95 % 15 lf 990,0 hPa 0,2 l/m 0 min 2 min 0 W/m 33,5 km/h (5 Bft) 97,87 %
04.01.2016 00:28 4,8 C 4,4 C 3,3 C 95 % 15 lf 990,0 hPa 0,0 l/m 0 min 2 min 0 W/m 29,3 km/h (5 Bft) 97,87 %
04.01.2016 00:30 4,8 C 4,4 C 3,3 C 95 % 15 lf 989,9 hPa 0,0 l/m 0 min 2 min 0 W/m 33,5 km/h (5 Bft) 95,74 %
04.01.2016 00:32 4,8 C 4,4 C 3,3 C 95 % 15 lf 990,0 hPa 0,2 l/m 0 min 2 min 0 W/m 31,4 km/h (5 Bft) 95,74 %
04.01.2016 00:34 4,8 C 4,4 C 3,3 C 95 % 15 lf 990,0 hPa 0,0 l/m 0 min 2 min 0 W/m 35,6 km/h (5 Bft) 97,83 %
04.01.2016 00:36 4,8 C 4,4 C 3,3 C 95 % 15 lf 989,9 hPa 0,0 l/m 0 min 2 min 0 W/m 29,3 km/h (5 Bft) 95,74 %
04.01.2016 00:38 4,8 C 4,4 C 3,3 C 95 % 15 lf 989,9 hPa 0,0 l/m 0 min 2 min 0 W/m 35,6 km/h (5 Bft) 97,87 %
04.01.2016 00:40 4,8 C 4,4 C 3,3 C 95 % 15 lf 989,9 hPa 0,2 l/m 0 min 2 min 0 W/m 35,6 km/h (5 Bft) 91,49 %
04.01.2016 00:42 4,8 C 4,4 C 3,3 C 95 % 15 lf 989,9 hPa 0,0 l/m 0 min 2 min 0 W/m 31,4 km/h (5 Bft) 93,62 %
04.01.2016 00:44 4,8 C 4,4 C 3,3 C 95 % 15 lf 989,8 hPa 0,0 l/m 0 min 2 min 0 W/m 41,8 km/h (6 Bft) 95,74 %
04.01.2016 00:46 4,7 C 4,4 C 3,3 C 95 % 15 lf 989,8 hPa 0,0 l/m 0 min 2 min 0 W/m 23,0 km/h (4 Bft) 95,65 %
04.01.2016 00:48 4,7 C 4,4 C 3,3 C 95 % 15 lf 989,8 hPa 0,2 l/m 0 min 2 min 0 W/m 29,3 km/h (5 Bft) 97,87 %
04.01.2016 00:50 4,7 C 4,4 C 3,3 C 95 % 15 lf 989,8 hPa 0,0 l/m 0 min 2 min 0 W/m 33,5 km/h (5 Bft) 95,74 %
04.01.2016 00:52 4,7 C 4,4 C 3,3 C 95 % 15 lf 989,7 hPa 0,0 l/m 0 min 2 min 0 W/m 25,1 km/h (4 Bft) 95,74 %
04.01.2016 00:54 4,7 C 4,4 C 3,3 C 95 % 15 lf 989,7 hPa 0,0 l/m 0 min 2 min 0 W/m 35,6 km/h (5 Bft) 97,87 %
04.01.2016 00:56 4,7 C 4,4 C 3,3 C 95 % 15 lf 989,7 hPa 0,0 l/m 0 min 2 min 0 W/m 25,1 km/h (4 Bft) 95,74 %
04.01.2016 00:58 4,7 C 4,4 C 3,3 C 95 % 15 lf 989,7 hPa 0,2 l/m 0 min 2 min 0 W/m 29,3 km/h (5 Bft) 95,65 %
04.01.2016 01:00 4,7 C 4,4 C 3,3 C 95 % 15 lf 989,7 hPa 0,0 l/m 0 min 2 min 0 W/m 31,4 km/h (5 Bft) 97,87 %
04.01.2016 01:02 4,6 C 4,4 C 3,3 C 95 % 15 lf 989,6 hPa 0,0 l/m 0 min 2 min 0 W/m 23,0 km/h (4 Bft) 95,74 %
04.01.2016 01:04 4,6 C 4,4 C 3,3 C 96 % 15 lf 989,5 hPa 0,0 l/m 0 min 2 min 0 W/m 29,3 km/h (5 Bft) 95,74 %
04.01.2016 01:06 4,6 C 4,4 C 3,3 C 96 % 15 lf 989,6 hPa 0,2 l/m 0 min 2 min 0 W/m 27,2 km/h (4 Bft) 97,87 %
04.01.2016 01:08 4,6 C 4,4 C 3,3 C 96 % 15 lf 989,5 hPa 0,0 l/m 0 min 2 min 0 W/m 25,1 km/h (4 Bft) 97,87 %
04.01.2016 01:10 4,6 C 4,4 C 3,3 C 96 % 15 lf 989,5 hPa 0,0 l/m 0 min 2 min 0 W/m 25,1 km/h (4 Bft) 97,83 %
04.01.2016 01:12 4,6 C 4,4 C 3,3 C 96 % 15 lf 989,5 hPa 0,0 l/m 0 min 2 min 0 W/m 25,1 km/h (4 Bft) 97,87 %
04.01.2016 01:14 4,6 C 4,4 C 3,3 C 96 % 15 lf 989,5 hPa 0,0 l/m 0 min 2 min 0 W/m 25,1 km/h (4 Bft) 95,74 %
04.01.2016 01:16 4,6 C 4,4 C 3,3 C 96 % 15 lf 989,4 hPa 0,0 l/m 0 min 2 min 0 W/m 37,7 km/h (5 Bft) 93,62 %
04.01.2016 01:18 4,5 C 4,4 C 3,3 C 96 % 15 lf 989,5 hPa 0,0 l/m 0 min 2 min 0 W/m 35,6 km/h (5 Bft) 95,74 %
04.01.2016 01:20 4,5 C 4,4 C 3,3 C 96 % 15 lf 989,4 hPa 0,2 l/m 0 min 2 min 0 W/m 25,1 km/h (4 Bft) 93,62 %
04.01.2016 01:22 4,5 C 4,4 C 3,3 C 96 % 15 lf 989,3 hPa 0,0 l/m 0 min 2 min 0 W/m 27,2 km/h (4 Bft) 93,48 %
04.01.2016 01:24 4,5 C 4,4 C 3,3 C 96 % 15 lf 989,3 hPa 0,0 l/m 0 min 2 min 0 W/m 27,2 km/h (4 Bft) 95,74 %
04.01.2016 01:26 4,5 C 4,4 C 3,3 C 96 % 15 lf 989,3 hPa 0,0 l/m 0 min 2 min 0 W/m 43,9 km/h (6 Bft) 95,74 %
04.01.2016 01:28 4,4 C 4,4 C 2,8 C 96 % 15 lf 989,3 hPa 0,0 l/m 0 min 2 min 0 W/m 35,6 km/h (5 Bft) 89,36 %
04.01.2016 01:30 4,4 C 3,9 C 2,8 C 96 % 15 lf 989,2 hPa 0,0 l/m 0 min 2 min 0 W/m 33,5 km/h (5 Bft) 93,62 %
04.01.2016 01:32 4,4 C 3,9 C 2,8 C 96 % 15 lf 989,3 hPa 0,2 l/m 0 min 2 min 0 W/m 27,2 km/h (4 Bft) 91,30 %
04.01.2016 01:34 4,4 C 3,9 C 2,8 C 96 % 15 lf 989,3 hPa 0,0 l/m 0 min 2 min 0 W/m 29,3 km/h (5 Bft) 93,62 %
04.01.2016 01:36 4,4 C 3,9 C 2,8 C 96 % 15 lf 989,3 hPa 0,0 l/m 0 min 2 min 0 W/m 25,1 km/h (4 Bft) 93,62 %
04.01.2016 01:38 4,4 C 3,9 C 2,8 C 96 % 15 lf 989,2 hPa 0,0 l/m 0 min 2 min 0 W/m 23,0 km/h (4 Bft) 89,36 %
04.01.2016 01:40 4,4 C 3,9 C 2,8 C 96 % 15 lf 989,2 hPa 0,0 l/m 0 min 2 min 0 W/m 25,1 km/h (4 Bft) 95,74 %
04.01.2016 01:42 4,3 C 3,9 C 2,8 C 96 % 15 lf 989,2 hPa 0,2 l/m 0 min 2 min 0 W/m 29,3 km/h (5 Bft) 95,74 %
04.01.2016 01:44 4,3 C 3,9 C 2,8 C 96 % 15 lf 989,2 hPa 0,0 l/m 0 min 2 min 0 W/m 18,8 km/h (3 Bft) 95,65 %
04.01.2016 01:46 4,3 C 3,9 C 2,8 C 96 % 15 lf 989,2 hPa 0,0 l/m 0 min 2 min 0 W/m 31,4 km/h (5 Bft) 89,36 %
04.01.2016 01:48 4,3 C 3,9 C 2,8 C 96 % 15 lf 989,2 hPa 0,0 l/m 0 min 2 min 0 W/m 25,1 km/h (4 Bft) 95,74 %
04.01.2016 01:50 4,3 C 3,9 C 2,8 C 96 % 15 lf 989,2 hPa 0,0 l/m 0 min 2 min 0 W/m 16,7 km/h (3 Bft) 93,62 %
04.01.2016 01:52 4,3 C 3,9 C 2,8 C 96 % 15 lf 989,1 hPa 0,0 l/m 0 min 2 min 0 W/m 33,5 km/h (5 Bft) 93,62 %
04.01.2016 01:54 4,3 C 3,9 C 2,8 C 96 % 15 lf 989,1 hPa 0,2 l/m 0 min 2 min 0 W/m 31,4 km/h (5 Bft) 89,36 %
04.01.2016 01:56 4,3 C 3,9 C 2,8 C 96 % 15 lf 989,1 hPa 0,0 l/m 0 min 2 min 0 W/m 23,0 km/h (4 Bft) 93,48 %
04.01.2016 01:58 4,2 C 3,9 C 2,8 C 96 % 15 lf 989,1 hPa 0,0 l/m 0 min 2 min 0 W/m 31,4 km/h (5 Bft) 95,74 %
04.01.2016 02:00 4,2 C 3,9 C 2,8 C 96 % 15 lf 989,1 hPa 0,0 l/m 0 min 2 min 0 W/m 20,9 km/h (4 Bft) 95,74 %
04.01.2016 02:02 4,2 C 3,9 C 2,8 C 96 % 15 lf 989,1 hPa 0,0 l/m 0 min 2 min 0 W/m 29,3 km/h (5 Bft) 95,74 %
04.01.2016 02:04 4,2 C 3,9 C 2,8 C 96 % 15 lf 989,1 hPa 0,0 l/m 0 min 2 min 0 W/m 23,0 km/h (4 Bft) 95,74 %
04.01.2016 02:06 4,2 C 3,9 C 2,8 C 96 % 15 lf 989,0 hPa 0,0 l/m 0 min 2 min 0 W/m 33,5 km/h (5 Bft) 93,62 %
04.01.2016 02:08 4,2 C 3,9 C 2,8 C 96 % 15 lf 989,1 hPa 0,0 l/m 0 min 2 min 0 W/m 27,2 km/h (4 Bft) 93,48 %
04.01.2016 02:10 4,2 C 3,9 C 2,8 C 96 % 15 lf 989,0 hPa 0,0 l/m 0 min 2 min 0 W/m 20,9 km/h (4 Bft) 93,62 %
04.01.2016 02:12 4,2 C 3,9 C 2,8 C 96 % 15 lf 989,0 hPa 0,2 l/m 0 min 2 min 0 W/m 25,1 km/h (4 Bft) 97,87 %
04.01.2016 02:14 4,1 C 3,9 C 2,8 C 96 % 15 lf 989,1 hPa 0,0 l/m 0 min 2 min 0 W/m 20,9 km/h (4 Bft) 97,87 %
04.01.2016 02:16 4,1 C 3,9 C 2,8 C 96 % 15 lf 989,0 hPa 0,0 l/m 0 min 2 min 0 W/m 25,1 km/h (4 Bft) 95,74 %
04.01.2016 02:18 4,1 C 3,9 C 2,8 C 96 % 15 lf 988,9 hPa 0,0 l/m 0 min 2 min 0 W/m 23,0 km/h (4 Bft) 97,87 %
04.01.2016 02:20 4,1 C 3,9 C 2,8 C 96 % 15 lf 989,0 hPa 0,0 l/m 0 min 2 min 0 W/m 23,0 km/h (4 Bft) 95,65 %
04.01.2016 02:22 4,1 C 3,9 C 2,8 C 96 % 15 lf 988,9 hPa 0,0 l/m 0 min 2 min 0 W/m 23,0 km/h (4 Bft) 97,87 %
04.01.2016 02:24 4,1 C 3,9 C 2,8 C 96 % 15 lf 989,0 hPa 0,0 l/m 0 min 2 min 0 W/m 18,8 km/h (3 Bft) 95,74 %
04.01.2016 02:26 4,1 C 3,9 C 2,8 C 96 % 15 lf 988,9 hPa 0,0 l/m 0 min 2 min 0 W/m 31,4 km/h (5 Bft) 97,87 %
04.01.2016 02:28 4,1 C 3,9 C 2,8 C 96 % 15 lf 988,8 hPa 0,2 l/m 0 min 2 min 0 W/m 27,2 km/h (4 Bft) 95,74 %
04.01.2016 02:30 4,1 C 3,9 C 2,8 C 96 % 15 lf 988,8 hPa 0,0 l/m 0 min 2 min 0 W/m 27,2 km/h (4 Bft) 97,87 %
04.01.2016 02:32 4,0 C 3,9 C 2,8 C 96 % 15 lf 988,8 hPa 0,0 l/m 0 min 2 min 0 W/m 25,1 km/h (4 Bft) 95,65 %
04.01.2016 02:34 4,1 C 3,9 C 2,8 C 96 % 15 lf 988,8 hPa 0,0 l/m 0 min 2 min 0 W/m 33,5 km/h (5 Bft) 95,74 %
04.01.2016 02:36 4,0 C 3,9 C 2,8 C 96 % 15 lf 988,8 hPa 0,0 l/m 0 min 2 min 0 W/m 20,9 km/h (4 Bft) 95,74 %
04.01.2016 02:38 4,0 C 3,9 C 2,8 C 96 % 15 lf 988,8 hPa 0,2 l/m 0 min 2 min 0 W/m 31,4 km/h (5 Bft) 97,87 %
04.01.2016 02:40 4,0 C 3,9 C 2,8 C 96 % 15 lf 988,8 hPa 0,0 l/m 0 min 2 min 0 W/m 31,4 km/h (5 Bft) 100,00 %
04.01.2016 02:42 4,0 C 3,9 C 2,8 C 96 % 15 lf 988,8 hPa 0,0 l/m 0 min 2 min 0 W/m 27,2 km/h (4 Bft) 100,00 %
04.01.2016 02:44 4,0 C 3,9 C 2,8 C 96 % 15 lf 988,8 hPa 0,0 l/m 0 min 2 min 0 W/m 16,7 km/h (3 Bft) 100,00 %
04.01.2016 02:46 4,0 C 3,9 C 2,8 C 96 % 15 lf 988,8 hPa 0,2 l/m 0 min 2 min 0 W/m 31,4 km/h (5 Bft) 93,62 %
04.01.2016 02:48 4,0 C 3,9 C 2,8 C 96 % 15 lf 988,8 hPa 0,0 l/m 0 min 2 min 0 W/m 25,1 km/h (4 Bft) 100,00 %
04.01.2016 02:50 3,9 C 3,9 C 2,8 C 96 % 15 lf 988,7 hPa 0,0 l/m 0 min 2 min 0 W/m 27,2 km/h (4 Bft) 97,87 %
04.01.2016 02:52 3,9 C 3,9 C 2,8 C 96 % 15 lf 988,7 hPa 0,0 l/m 0 min 2 min 0 W/m 20,9 km/h (4 Bft) 100,00 %
04.01.2016 02:54 3,9 C 3,9 C 2,8 C 96 % 15 lf 988,7 hPa 0,2 l/m 0 min 2 min 0 W/m 33,5 km/h (5 Bft) 100,00 %
04.01.2016 02:56 3,9 C 3,9 C 2,8 C 96 % 15 lf 988,7 hPa 0,0 l/m 0 min 2 min 0 W/m 33,5 km/h (5 Bft) 100,00 %
04.01.2016 02:58 3,9 C 3,9 C 2,8 C 96 % 15 lf 988,7 hPa 0,2 l/m 0 min 2 min 0 W/m 25,1 km/h (4 Bft) 97,87 %
04.01.2016 03:00 3,9 C 3,9 C 2,8 C 96 % 15 lf 988,7 hPa 0,0 l/m 0 min 2 min 0 W/m 33,5 km/h (5 Bft) 100,00 %
04.01.2016 03:02 3,9 C 3,9 C 2,8 C 96 % 15 lf 988,7 hPa 0,0 l/m 0 min 2 min 0 W/m 33,5 km/h (5 Bft) 93,62 %
04.01.2016 03:04 3,9 C 3,9 C 2,8 C 96 % 15 lf 988,7 hPa 0,2 l/m 0 min 2 min 0 W/m 27,2 km/h (4 Bft) 95,74 %
04.01.2016 03:06 3,9 C 3,9 C 2,8 C 96 % 15 lf 988,7 hPa 0,0 l/m 0 min 2 min 0 W/m 29,3 km/h (5 Bft) 97,83 %
04.01.2016 03:08 3,9 C 3,9 C 2,8 C 96 % 15 lf 988,7 hPa 0,0 l/m 0 min 2 min 0 W/m 29,3 km/h (5 Bft) 97,87 %
04.01.2016 03:10 3,9 C 3,9 C 2,8 C 96 % 15 lf 988,7 hPa 0,0 l/m 0 min 2 min 0 W/m 23,0 km/h (4 Bft) 95,74 %
04.01.2016 03:12 3,9 C 3,9 C 2,8 C 96 % 15 lf 988,7 hPa 0,2 l/m 0 min 2 min 0 W/m 33,5 km/h (5 Bft) 97,87 %
04.01.2016 03:14 3,8 C 3,9 C 2,8 C 96 % 15 lf 988,6 hPa 0,0 l/m 0 min 2 min 0 W/m 25,1 km/h (4 Bft) 100,00 %
04.01.2016 03:16 3,8 C 3,9 C 2,8 C 96 % 15 lf 988,6 hPa 0,0 l/m 0 min 2 min 0 W/m 27,2 km/h (4 Bft) 91,49 %
04.01.2016 03:18 3,8 C 3,9 C 2,8 C 96 % 15 lf 988,6 hPa 0,0 l/m 0 min 2 min 0 W/m 25,1 km/h (4 Bft) 93,48 %
04.01.2016 03:20 3,8 C 3,9 C 2,8 C 96 % 15 lf 988,7 hPa 0,0 l/m 0 min 2 min 0 W/m 20,9 km/h (4 Bft) 95,74 %
04.01.2016 03:22 3,8 C 3,9 C 2,8 C 96 % 15 lf 988,6 hPa 0,2 l/m 0 min 2 min 0 W/m 27,2 km/h (4 Bft) 97,87 %
04.01.2016 03:24 3,8 C 3,9 C 2,2 C 96 % 15 lf 988,6 hPa 0,0 l/m 0 min 2 min 0 W/m 29,3 km/h (5 Bft) 97,87 %
04.01.2016 03:26 3,8 C 3,9 C 2,8 C 96 % 15 lf 988,6 hPa 0,0 l/m 0 min 2 min 0 W/m 25,1 km/h (4 Bft) 97,87 %
04.01.2016 03:28 3,8 C 3,9 C 2,8 C 96 % 15 lf 988,6 hPa 0,2 l/m 0 min 2 min 0 W/m 23,0 km/h (4 Bft) 95,74 %
04.01.2016 03:30 3,8 C 3,9 C 2,2 C 96 % 15 lf 988,6 hPa 0,0 l/m 0 min 2 min 0 W/m 23,0 km/h (4 Bft) 97,83 %
04.01.2016 03:32 3,8 C 3,9 C 2,2 C 96 % 15 lf 988,5 hPa 0,0 l/m 0 min 2 min 0 W/m 23,0 km/h (4 Bft) 97,87 %
04.01.2016 03:34 3,8 C 3,9 C 2,2 C 96 % 15 lf 988,5 hPa 0,0 l/m 0 min 2 min 0 W/m 29,3 km/h (5 Bft) 97,87 %
04.01.2016 03:36 3,8 C 3,3 C 2,2 C 96 % 15 lf 988,5 hPa 0,2 l/m 0 min 2 min 0 W/m 25,1 km/h (4 Bft) 93,62 %
04.01.2016 03:38 3,7 C 3,3 C 2,2 C 96 % 15 lf 988,5 hPa 0,0 l/m 0 min 2 min 0 W/m 29,3 km/h (5 Bft) 97,87 %
04.01.2016 03:40 3,7 C 3,3 C 2,2 C 96 % 15 lf 988,5 hPa 0,0 l/m 0 min 2 min 0 W/m 25,1 km/h (4 Bft) 100,00 %
04.01.2016 03:42 3,7 C 3,3 C 2,2 C 96 % 15 lf 988,5 hPa 0,0 l/m 0 min 2 min 0 W/m 27,2 km/h (4 Bft) 97,83 %
04.01.2016 03:44 3,7 C 3,3 C 2,2 C 96 % 15 lf 988,4 hPa 0,0 l/m 0 min 2 min 0 W/m 18,8 km/h (3 Bft) 95,74 %
04.01.2016 03:46 3,7 C 3,3 C 2,2 C 96 % 15 lf 988,4 hPa 0,2 l/m 0 min 2 min 0 W/m 27,2 km/h (4 Bft) 97,87 %
04.01.2016 03:48 3,7 C 3,3 C 2,2 C 96 % 15 lf 988,4 hPa 0,0 l/m 0 min 2 min 0 W/m 29,3 km/h (5 Bft) 97,87 %
04.01.2016 03:50 3,7 C 3,3 C 2,2 C 96 % 15 lf 988,4 hPa 0,0 l/m 0 min 2 min 0 W/m 25,1 km/h (4 Bft) 100,00 %
04.01.2016 03:52 3,7 C 3,3 C 2,2 C 96 % 15 lf 988,4 hPa 0,0 l/m 0 min 2 min 0 W/m 25,1 km/h (4 Bft) 95,74 %
04.01.2016 03:54 3,7 C 3,3 C 2,2 C 96 % 15 lf 988,4 hPa 0,0 l/m 0 min 2 min 0 W/m 29,3 km/h (5 Bft) 100,00 %
04.01.2016 03:56 3,7 C 3,3 C 2,2 C 96 % 15 lf 988,3 hPa 0,0 l/m 0 min 2 min 0 W/m 18,8 km/h (3 Bft) 100,00 %
04.01.2016 03:58 3,7 C 3,3 C 2,2 C 96 % 15 lf 988,4 hPa 0,2 l/m 0 min 2 min 0 W/m 25,1 km/h (4 Bft) 95,74 %
04.01.2016 04:00 3,7 C 3,3 C 2,2 C 96 % 15 lf 988,3 hPa 0,0 l/m 0 min 2 min 0 W/m 20,9 km/h (4 Bft) 100,00 %
04.01.2016 04:02 3,6 C 3,3 C 2,2 C 96 % 15 lf 988,4 hPa 0,0 l/m 0 min 2 min 0 W/m 20,9 km/h (4 Bft) 100,00 %
04.01.2016 04:04 3,6 C 3,3 C 2,2 C 96 % 15 lf 988,2 hPa 0,0 l/m 0 min 2 min 0 W/m 25,1 km/h (4 Bft) 97,83 %
04.01.2016 04:06 3,6 C 3,3 C 2,2 C 96 % 15 lf 988,2 hPa 0,0 l/m 0 min 2 min 0 W/m 33,5 km/h (5 Bft) 100,00 %
04.01.2016 04:08 3,6 C 3,3 C 2,2 C 96 % 15 lf 988,3 hPa 0,2 l/m 0 min 2 min 0 W/m 23,0 km/h (4 Bft) 97,87 %
04.01.2016 04:10 3,6 C 3,3 C 2,2 C 96 % 15 lf 988,2 hPa 0,0 l/m 0 min 2 min 0 W/m 23,0 km/h (4 Bft) 97,87 %
04.01.2016 04:12 3,6 C 3,3 C 2,2 C 96 % 15 lf 988,2 hPa 0,0 l/m 0 min 2 min 0 W/m 35,6 km/h (5 Bft) 95,74 %
04.01.2016 04:14 3,6 C 3,3 C 2,2 C 96 % 15 lf 988,1 hPa 0,0 l/m 0 min 2 min 0 W/m 20,9 km/h (4 Bft) 91,49 %
04.01.2016 04:16 3,6 C 3,3 C 2,2 C 96 % 15 lf 988,1 hPa 0,0 l/m 0 min 2 min 0 W/m 25,1 km/h (4 Bft) 100,00 %
04.01.2016 04:18 3,6 C 3,3 C 2,2 C 96 % 15 lf 988,1 hPa 0,0 l/m 0 min 2 min 0 W/m 23,0 km/h (4 Bft) 100,00 %
04.01.2016 04:20 3,6 C 3,3 C 2,2 C 96 % 15 lf 988,1 hPa 0,0 l/m 0 min 2 min 0 W/m 20,9 km/h (4 Bft) 95,74 %
04.01.2016 04:22 3,6 C 3,3 C 2,2 C 96 % 15 lf 988,1 hPa 0,0 l/m 0 min 2 min 0 W/m 25,1 km/h (4 Bft) 93,62 %
04.01.2016 04:24 3,6 C 3,3 C 2,2 C 96 % 15 lf 988,1 hPa 0,2 l/m 0 min 2 min 0 W/m 18,8 km/h (3 Bft) 95,74 %
04.01.2016 04:26 3,6 C 3,3 C 2,2 C 96 % 15 lf 988,1 hPa 0,0 l/m 0 min 2 min 0 W/m 25,1 km/h (4 Bft) 93,62 %
04.01.2016 04:28 3,6 C 3,3 C 2,2 C 96 % 15 lf 988,1 hPa 0,0 l/m 0 min 2 min 0 W/m 18,8 km/h (3 Bft) 95,65 %
04.01.2016 04:30 3,6 C 3,3 C 2,2 C 96 % 15 lf 988,1 hPa 0,0 l/m 0 min 2 min 0 W/m 23,0 km/h (4 Bft) 95,74 %
04.01.2016 04:32 3,6 C 3,3 C 2,2 C 97 % 15 lf 988,1 hPa 0,0 l/m 0 min 2 min 0 W/m 16,7 km/h (3 Bft) 95,74 %
04.01.2016 04:34 3,6 C 3,3 C 2,2 C 97 % 15 lf 988,0 hPa 0,0 l/m 0 min 2 min 0 W/m 25,1 km/h (4 Bft) 95,74 %
04.01.2016 04:36 3,6 C 3,3 C 2,2 C 97 % 15 lf 988,0 hPa 0,2 l/m 0 min 2 min 0 W/m 29,3 km/h (5 Bft) 95,74 %
04.01.2016 04:38 3,6 C 3,3 C 2,2 C 97 % 15 lf 988,0 hPa 0,0 l/m 0 min 2 min 0 W/m 18,8 km/h (3 Bft) 95,74 %
04.01.2016 04:40 3,6 C 3,3 C 2,2 C 97 % 15 lf 988,0 hPa 0,0 l/m 0 min 2 min 0 W/m 25,1 km/h (4 Bft) 91,30 %
04.01.2016 04:42 3,6 C 3,3 C 2,2 C 97 % 15 lf 988,0 hPa 0,0 l/m 0 min 2 min 0 W/m 20,9 km/h (4 Bft) 93,62 %
04.01.2016 04:44 3,6 C 3,3 C 2,2 C 97 % 15 lf 988,0 hPa 0,0 l/m 0 min 2 min 0 W/m 16,7 km/h (3 Bft) 93,62 %
04.01.2016 04:46 3,6 C 3,3 C 2,2 C 97 % 15 lf 988,0 hPa 0,0 l/m 0 min 2 min 0 W/m 16,7 km/h (3 Bft) 93,62 %
04.01.2016 04:48 3,6 C 3,3 C 2,2 C 97 % 15 lf 988,0 hPa 0,0 l/m 0 min 2 min 0 W/m 14,6 km/h (3 Bft) 93,62 %
04.01.2016 04:50 3,6 C 3,3 C 2,2 C 97 % 15 lf 988,0 hPa 0,2 l/m 0 min 2 min 0 W/m 18,8 km/h (3 Bft) 91,49 %
04.01.2016 04:52 3,6 C 3,3 C 2,2 C 97 % 15 lf 988,0 hPa 0,0 l/m 0 min 2 min 0 W/m 16,7 km/h (3 Bft) 91,30 %
04.01.2016 04:54 3,6 C 3,3 C 2,2 C 97 % 15 lf 987,9 hPa 0,0 l/m 0 min 2 min 0 W/m 23,0 km/h (4 Bft) 91,49 %
04.01.2016 04:56 3,5 C 3,3 C 2,2 C 97 % 15 lf 987,8 hPa 0,0 l/m 0 min 2 min 0 W/m 27,2 km/h (4 Bft) 89,36 %
04.01.2016 04:58 3,6 C 3,3 C 2,2 C 97 % 15 lf 987,7 hPa 0,2 l/m 0 min 2 min 0 W/m 23,0 km/h (4 Bft) 89,36 %
04.01.2016 05:00 3,6 C 3,3 C 2,2 C 97 % 15 lf 987,6 hPa 0,0 l/m 0 min 2 min 0 W/m 27,2 km/h (4 Bft) 91,49 %
04.01.2016 05:02 3,6 C 3,3 C 2,2 C 97 % 15 lf 987,7 hPa 0,0 l/m 0 min 2 min 0 W/m 27,2 km/h (4 Bft) 86,96 %
04.01.2016 05:04 3,5 C 3,3 C 2,2 C 97 % 15 lf 987,7 hPa 0,0 l/m 0 min 2 min 0 W/m 27,2 km/h (4 Bft) 89,36 %
04.01.2016 05:06 3,5 C 3,3 C 2,2 C 97 % 15 lf 987,6 hPa 0,0 l/m 0 min 2 min 0 W/m 23,0 km/h (4 Bft) 91,49 %
04.01.2016 05:08 3,5 C 3,3 C 2,2 C 97 % 15 lf 987,6 hPa 0,0 l/m 0 min 2 min 0 W/m 23,0 km/h (4 Bft) 89,36 %
04.01.2016 05:10 3,5 C 3,3 C 2,2 C 97 % 15 lf 987,7 hPa 0,0 l/m 0 min 2 min 0 W/m 20,9 km/h (4 Bft) 89,36 %
04.01.2016 05:12 3,5 C 3,3 C 2,2 C 97 % 15 lf 987,7 hPa 0,0 l/m 0 min 2 min 0 W/m 20,9 km/h (4 Bft) 93,62 %
04.01.2016 05:14 3,5 C 3,3 C 2,2 C 97 % 15 lf 987,7 hPa 0,2 l/m 0 min 2 min 0 W/m 20,9 km/h (4 Bft) 91,30 %
04.01.2016 05:16 3,5 C 3,3 C 2,2 C 97 % 15 lf 987,7 hPa 0,0 l/m 0 min 2 min 0 W/m 16,7 km/h (3 Bft) 93,62 %
04.01.2016 05:18 3,5 C 3,3 C 2,2 C 97 % 15 lf 987,7 hPa 0,0 l/m 0 min 2 min 0 W/m 16,7 km/h (3 Bft) 93,62 %
04.01.2016 05:20 3,5 C 3,3 C 2,2 C 97 % 15 lf 987,6 hPa 0,0 l/m 0 min 2 min 0 W/m 14,6 km/h (3 Bft) 93,62 %
04.01.2016 05:22 3,5 C 3,3 C 2,2 C 97 % 15 lf 987,6 hPa 0,2 l/m 0 min 2 min 0 W/m 18,8 km/h (3 Bft) 95,74 %
04.01.2016 05:24 3,5 C 3,3 C 2,2 C 97 % 15 lf 987,6 hPa 0,0 l/m 0 min 2 min 0 W/m 23,0 km/h (4 Bft) 93,62 %
04.01.2016 05:26 3,4 C 3,3 C 2,2 C 97 % 15 lf 987,5 hPa 0,0 l/m 0 min 2 min 0 W/m 20,9 km/h (4 Bft) 91,30 %
04.01.2016 05:28 3,4 C 3,3 C 2,2 C 97 % 15 lf 987,6 hPa 0,0 l/m 0 min 2 min 0 W/m 27,2 km/h (4 Bft) 93,62 %
04.01.2016 05:30 3,4 C 3,3 C 2,2 C 97 % 15 lf 987,6 hPa 0,0 l/m 0 min 2 min 0 W/m 31,4 km/h (5 Bft) 95,74 %
04.01.2016 05:32 3,4 C 3,3 C 2,2 C 97 % 15 lf 987,5 hPa 0,0 l/m 0 min 2 min 0 W/m 33,5 km/h (5 Bft) 93,62 %
04.01.2016 05:34 3,4 C 3,3 C 2,2 C 97 % 15 lf 987,6 hPa 0,2 l/m 0 min 2 min 0 W/m 29,3 km/h (5 Bft) 95,74 %
04.01.2016 05:36 3,4 C 3,3 C 2,2 C 97 % 15 lf 987,6 hPa 0,0 l/m 0 min 2 min 0 W/m 16,7 km/h (3 Bft) 93,62 %
04.01.2016 05:38 3,4 C 3,3 C 2,2 C 97 % 15 lf 987,6 hPa 0,0 l/m 0 min 2 min 0 W/m 23,0 km/h (4 Bft) 97,83 %
04.01.2016 05:40 3,4 C 3,3 C 2,2 C 97 % 15 lf 987,6 hPa 0,0 l/m 0 min 2 min 0 W/m 23,0 km/h (4 Bft) 97,87 %
04.01.2016 05:42 3,4 C 3,3 C 2,2 C 97 % 15 lf 987,6 hPa 0,0 l/m 0 min 2 min 0 W/m 20,9 km/h (4 Bft) 97,87 %
04.01.2016 05:44 3,3 C 3,3 C 2,2 C 97 % 15 lf 987,6 hPa 0,0 l/m 0 min 2 min 0 W/m 18,8 km/h (3 Bft) 97,87 %
04.01.2016 05:46 3,3 C 3,3 C 2,2 C 97 % 15 lf 987,6 hPa 0,0 l/m 0 min 2 min 0 W/m 18,8 km/h (3 Bft) 97,87 %
04.01.2016 05:48 3,3 C 3,3 C 2,2 C 97 % 15 lf 987,6 hPa 0,0 l/m 0 min 2 min 0 W/m 16,7 km/h (3 Bft) 97,87 %
04.01.2016 05:50 3,3 C 3,3 C 2,2 C 97 % 15 lf 987,6 hPa 0,2 l/m 0 min 2 min 0 W/m 20,9 km/h (4 Bft) 97,83 %
04.01.2016 05:52 3,3 C 3,3 C 2,2 C 97 % 15 lf 987,6 hPa 0,0 l/m 0 min 2 min 0 W/m 16,7 km/h (3 Bft) 93,62 %
04.01.2016 05:54 3,3 C 3,3 C 2,2 C 97 % 15 lf 987,6 hPa 0,0 l/m 0 min 2 min 0 W/m 20,9 km/h (4 Bft) 97,87 %
04.01.2016 05:56 3,3 C 3,3 C 2,2 C 97 % 15 lf 987,6 hPa 0,0 l/m 0 min 2 min 0 W/m 20,9 km/h (4 Bft) 100,00 %
04.01.2016 05:58 3,3 C 3,3 C 2,2 C 97 % 15 lf 987,6 hPa 0,0 l/m 0 min 2 min 0 W/m 23,0 km/h (4 Bft) 97,87 %
04.01.2016 06:00 3,3 C 3,3 C 2,2 C 97 % 15 lf 987,5 hPa 0,0 l/m 0 min 2 min 0 W/m 18,8 km/h (3 Bft) 97,87 %
04.01.2016 06:02 3,3 C 3,3 C 2,2 C 97 % 15 lf 987,5 hPa 0,0 l/m 0 min 2 min 0 W/m 20,9 km/h (4 Bft) 97,83 %
04.01.2016 06:04 3,3 C 3,3 C 2,2 C 97 % 15 lf 987,5 hPa 0,0 l/m 0 min 2 min 0 W/m 20,9 km/h (4 Bft) 95,74 %
04.01.2016 06:06 3,3 C 3,3 C 2,2 C 97 % 15 lf 987,5 hPa 0,0 l/m 0 min 0 min 0 W/m 20,9 km/h (4 Bft) 97,87 %
04.01.2016 06:08 3,3 C 3,3 C 2,2 C 97 % 15 lf 987,5 hPa 0,0 l/m 0 min 0 min 0 W/m 27,2 km/h (4 Bft) 100,00 %
04.01.2016 06:10 3,3 C 3,3 C 2,2 C 97 % 15 lf 987,4 hPa 0,0 l/m 0 min 2 min 0 W/m 23,0 km/h (4 Bft) 97,87 %
04.01.2016 06:12 3,3 C 3,3 C 2,2 C 97 % 15 lf 987,5 hPa 0,0 l/m 0 min 2 min 0 W/m 29,3 km/h (5 Bft) 95,74 %
04.01.2016 06:14 3,3 C 3,3 C 2,2 C 97 % 15 lf 987,5 hPa 0,0 l/m 0 min 2 min 0 W/m 18,8 km/h (3 Bft) 100,00 %
04.01.2016 06:16 3,3 C 3,3 C 2,2 C 97 % 15 lf 987,5 hPa 0,0 l/m 0 min 2 min 0 W/m 14,6 km/h (3 Bft) 95,74 %
04.01.2016 06:18 3,3 C 3,3 C 2,2 C 97 % 15 lf 987,5 hPa 0,0 l/m 0 min 2 min 0 W/m 14,6 km/h (3 Bft) 100,00 %
04.01.2016 06:20 3,3 C 3,3 C 2,2 C 97 % 15 lf 987,5 hPa 0,0 l/m 0 min 2 min 0 W/m 18,8 km/h (3 Bft) 97,87 %
04.01.2016 06:22 3,3 C 3,3 C 2,2 C 97 % 15 lf 987,5 hPa 0,0 l/m 0 min 2 min 0 W/m 25,1 km/h (4 Bft) 100,00 %
04.01.2016 06:24 3,3 C 3,3 C 2,2 C 97 % 15 lf 987,6 hPa 0,0 l/m 0 min 2 min 0 W/m 25,1 km/h (4 Bft) 100,00 %
04.01.2016 06:26 3,3 C 3,3 C 2,2 C 97 % 15 lf 987,6 hPa 0,0 l/m 0 min 2 min 0 W/m 25,1 km/h (4 Bft) 97,87 %
04.01.2016 06:28 3,3 C 3,3 C 2,2 C 97 % 15 lf 987,6 hPa 0,0 l/m 0 min 2 min 0 W/m 12,6 km/h (3 Bft) 97,87 %
04.01.2016 06:30 3,3 C 3,3 C 2,2 C 97 % 15 lf 987,6 hPa 0,0 l/m 0 min 0 min 0 W/m 14,6 km/h (3 Bft) 95,74 %
04.01.2016 06:32 3,3 C 3,3 C 2,2 C 97 % 15 lf 987,5 hPa 0,0 l/m 0 min 0 min 0 W/m 18,8 km/h (3 Bft) 100,00 %
04.01.2016 06:34 3,3 C 3,3 C 2,2 C 97 % 15 lf 987,6 hPa 0,0 l/m 0 min 0 min 0 W/m 29,3 km/h (5 Bft) 97,87 %
04.01.2016 06:36 3,3 C 3,3 C 2,2 C 97 % 15 lf 987,5 hPa 0,0 l/m 0 min 0 min 0 W/m 16,7 km/h (3 Bft) 97,83 %
04.01.2016 06:38 3,3 C 3,3 C 2,2 C 97 % 15 lf 987,6 hPa 0,0 l/m 0 min 0 min 0 W/m 16,7 km/h (3 Bft) 97,87 %
04.01.2016 06:40 3,3 C 3,3 C 2,2 C 97 % 15 lf 987,6 hPa 0,0 l/m 0 min 0 min 0 W/m 18,8 km/h (3 Bft) 97,87 %
04.01.2016 06:42 3,3 C 3,3 C 2,2 C 97 % 15 lf 987,6 hPa 0,0 l/m 0 min 0 min 0 W/m 16,7 km/h (3 Bft) 100,00 %
04.01.2016 06:44 3,3 C 3,3 C 2,2 C 97 % 15 lf 987,6 hPa 0,0 l/m 0 min 0 min 0 W/m 14,6 km/h (3 Bft) 97,87 %
04.01.2016 06:46 3,3 C 3,3 C 2,2 C 97 % 15 lf 987,6 hPa 0,0 l/m 0 min 0 min 0 W/m 12,6 km/h (3 Bft) 100,00 %
04.01.2016 06:48 3,3 C 3,3 C 2,2 C 97 % 15 lf 987,6 hPa 0,0 l/m 0 min 0 min 0 W/m 14,6 km/h (3 Bft) 97,83 %
04.01.2016 06:50 3,3 C 3,3 C 2,2 C 97 % 15 lf 987,6 hPa 0,0 l/m 0 min 0 min 0 W/m 16,7 km/h (3 Bft) 95,74 %
04.01.2016 06:52 3,3 C 3,3 C 2,2 C 97 % 15 lf 987,6 hPa 0,0 l/m 0 min 0 min 0 W/m 12,6 km/h (3 Bft) 100,00 %
04.01.2016 06:54 3,3 C 3,3 C 2,2 C 97 % 15 lf 987,6 hPa 0,0 l/m 0 min 0 min 0 W/m 16,7 km/h (3 Bft) 93,62 %
04.01.2016 06:56 3,3 C 3,3 C 2,2 C 97 % 15 lf 987,6 hPa 0,0 l/m 0 min 0 min 0 W/m 18,8 km/h (3 Bft) 97,87 %
04.01.2016 06:58 3,3 C 3,3 C 2,2 C 97 % 15 lf 987,6 hPa 0,0 l/m 0 min 0 min 0 W/m 14,6 km/h (3 Bft) 95,74 %
04.01.2016 07:00 3,3 C 3,3 C 2,2 C 97 % 15 lf 987,6 hPa 0,0 l/m 0 min 0 min 0 W/m 16,7 km/h (3 Bft) 89,13 %
04.01.2016 07:02 3,3 C 3,3 C 2,2 C 97 % 15 lf 987,6 hPa 0,0 l/m 0 min 0 min 0 W/m 14,6 km/h (3 Bft) 91,49 %
04.01.2016 07:04 3,3 C 3,3 C 2,2 C 97 % 15 lf 987,6 hPa 0,0 l/m 0 min 0 min 0 W/m 18,8 km/h (3 Bft) 95,74 %
04.01.2016 07:06 3,3 C 3,3 C 2,2 C 97 % 15 lf 987,6 hPa 0,0 l/m 0 min 0 min 0 W/m 16,7 km/h (3 Bft) 97,87 %
04.01.2016 07:08 3,3 C 3,3 C 2,2 C 97 % 15 lf 987,6 hPa 0,0 l/m 0 min 0 min 0 W/m 18,8 km/h (3 Bft) 95,74 %
04.01.2016 07:10 3,3 C 3,3 C 2,2 C 97 % 15 lf 987,6 hPa 0,0 l/m 0 min 0 min 0 W/m 14,6 km/h (3 Bft) 93,62 %
04.01.2016 07:12 3,3 C 3,3 C 2,2 C 97 % 15 lf 987,6 hPa 0,0 l/m 0 min 0 min 0 W/m 18,8 km/h (3 Bft) 95,65 %
04.01.2016 07:14 3,3 C 3,3 C 2,2 C 97 % 15 lf 987,5 hPa 0,0 l/m 0 min 0 min 0 W/m 18,8 km/h (3 Bft) 93,62 %
04.01.2016 07:16 3,3 C 3,3 C 2,2 C 97 % 15 lf 987,6 hPa 0,0 l/m 0 min 0 min 0 W/m 14,6 km/h (3 Bft) 93,62 %
04.01.2016 07:18 3,3 C 3,3 C 2,2 C 97 % 15 lf 987,6 hPa 0,0 l/m 0 min 0 min 0 W/m 18,8 km/h (3 Bft) 89,36 %
04.01.2016 07:20 3,3 C 3,3 C 2,2 C 97 % 15 lf 987,6 hPa 0,0 l/m 0 min 0 min 0 W/m 16,7 km/h (3 Bft) 93,62 %
04.01.2016 07:22 3,3 C 3,3 C 2,2 C 97 % 15 lf 987,6 hPa 0,0 l/m 0 min 0 min 0 W/m 12,6 km/h (3 Bft) 95,74 %
04.01.2016 07:24 3,3 C 3,3 C 2,2 C 97 % 15 lf 987,6 hPa 0,0 l/m 0 min 0 min 0 W/m 12,6 km/h (3 Bft) 95,65 %
04.01.2016 07:26 3,3 C 3,3 C 2,2 C 97 % 15 lf 987,6 hPa 0,0 l/m 0 min 0 min 0 W/m 12,6 km/h (3 Bft) 93,62 %
04.01.2016 07:28 3,3 C 3,3 C 2,2 C 97 % 15 lf 987,6 hPa 0,0 l/m 0 min 0 min 0 W/m 12,6 km/h (3 Bft) 95,74 %
04.01.2016 07:30 3,3 C 3,3 C 2,2 C 97 % 15 lf 987,6 hPa 0,0 l/m 0 min 0 min 0 W/m 16,7 km/h (3 Bft) 93,62 %
04.01.2016 07:32 3,3 C 3,3 C 2,2 C 97 % 15 lf 987,6 hPa 0,0 l/m 0 min 0 min 0 W/m 18,8 km/h (3 Bft) 93,62 %
04.01.2016 07:34 3,3 C 3,3 C 2,2 C 97 % 15 lf 987,6 hPa 0,0 l/m 0 min 0 min 0 W/m 18,8 km/h (3 Bft) 93,48 %
04.01.2016 07:36 3,3 C 3,3 C 2,2 C 97 % 15 lf 987,6 hPa 0,0 l/m 0 min 0 min 0 W/m 20,9 km/h (4 Bft) 93,62 %
04.01.2016 07:38 3,3 C 3,3 C 2,2 C 97 % 15 lf 987,6 hPa 0,0 l/m 0 min 0 min 0 W/m 12,6 km/h (3 Bft) 95,74 %
04.01.2016 07:40 3,3 C 3,3 C 2,2 C 97 % 15 lf 987,6 hPa 0,0 l/m 0 min 0 min 0 W/m 12,6 km/h (3 Bft) 93,62 %
04.01.2016 07:42 3,3 C 3,3 C 2,2 C 97 % 15 lf 987,6 hPa 0,0 l/m 0 min 0 min 0 W/m 12,6 km/h (3 Bft) 93,62 %
04.01.2016 07:44 3,3 C 3,3 C 2,2 C 97 % 15 lf 987,6 hPa 0,0 l/m 0 min 0 min 0 W/m 14,6 km/h (3 Bft) 95,74 %
04.01.2016 07:46 3,3 C 3,3 C 2,2 C 97 % 15 lf 987,6 hPa 0,0 l/m 0 min 0 min 0 W/m 18,8 km/h (3 Bft) 95,65 %
04.01.2016 07:48 3,3 C 3,3 C 2,2 C 97 % 15 lf 987,6 hPa 0,0 l/m 0 min 0 min 0 W/m 10,5 km/h (2 Bft) 93,62 %
04.01.2016 07:50 3,3 C 3,3 C 2,2 C 97 % 15 lf 987,6 hPa 0,0 l/m 0 min 0 min 0 W/m 10,5 km/h (2 Bft) 91,49 %
04.01.2016 07:52 3,3 C 3,3 C 2,2 C 97 % 15 lf 987,6 hPa 0,0 l/m 0 min 0 min 0 W/m 10,5 km/h (2 Bft) 97,87 %
04.01.2016 07:54 3,3 C 3,3 C 2,2 C 97 % 15 lf 987,6 hPa 0,0 l/m 0 min 0 min 0 W/m 16,7 km/h (3 Bft) 97,87 %
04.01.2016 07:56 3,4 C 3,3 C 2,2 C 97 % 15 lf 987,6 hPa 0,0 l/m 0 min 2 min 0 W/m 14,6 km/h (3 Bft) 95,74 %
04.01.2016 07:58 3,4 C 3,3 C 2,2 C 97 % 15 lf 987,7 hPa 0,0 l/m 0 min 2 min 0 W/m 12,6 km/h (3 Bft) 95,65 %
04.01.2016 08:00 3,4 C 3,3 C 2,2 C 97 % 15 lf 987,6 hPa 0,0 l/m 0 min 2 min 0 W/m 10,5 km/h (2 Bft) 93,62 %
04.01.2016 08:02 3,4 C 3,3 C 2,2 C 97 % 15 lf 987,7 hPa 0,0 l/m 0 min 2 min 0 W/m 10,5 km/h (2 Bft) 93,62 %
04.01.2016 08:04 3,4 C 3,3 C 2,2 C 97 % 15 lf 987,7 hPa 0,0 l/m 0 min 2 min 0 W/m 10,5 km/h (2 Bft) 97,87 %
04.01.2016 08:06 3,4 C 3,3 C 2,2 C 97 % 15 lf 987,6 hPa 0,0 l/m 0 min 0 min 0 W/m 10,5 km/h (2 Bft) 97,87 %
04.01.2016 08:08 3,4 C 3,3 C 2,2 C 97 % 15 lf 987,7 hPa 0,0 l/m 0 min 0 min 0 W/m 14,6 km/h (3 Bft) 95,74 %
04.01.2016 08:10 3,4 C 3,3 C 2,2 C 97 % 15 lf 987,7 hPa 0,0 l/m 0 min 0 min 0 W/m 6,3 km/h (2 Bft) 97,83 %
04.01.2016 08:12 3,4 C 3,3 C 2,2 C 97 % 15 lf 987,7 hPa 0,0 l/m 0 min 0 min 0 W/m 8,4 km/h (2 Bft) 97,87 %
04.01.2016 08:14 3,4 C 3,3 C 2,2 C 97 % 15 lf 987,7 hPa 0,0 l/m 0 min 2 min 0 W/m 6,3 km/h (2 Bft) 97,87 %
04.01.2016 08:16 3,4 C 3,3 C 2,2 C 97 % 15 lf 987,7 hPa 0,0 l/m 0 min 2 min 0 W/m 8,4 km/h (2 Bft) 100,00 %
04.01.2016 08:18 3,4 C 3,3 C 2,2 C 97 % 15 lf 987,7 hPa 0,0 l/m 0 min 2 min 0 W/m 10,5 km/h (2 Bft) 97,87 %
04.01.2016 08:20 3,4 C 3,3 C 2,2 C 97 % 15 lf 987,7 hPa 0,0 l/m 0 min 2 min 0 W/m 12,6 km/h (3 Bft) 100,00 %
04.01.2016 08:22 3,4 C 3,3 C 2,2 C 97 % 15 lf 987,7 hPa 0,0 l/m 0 min 0 min 0 W/m 10,5 km/h (2 Bft) 100,00 %
04.01.2016 08:24 3,4 C 3,3 C 2,8 C 97 % 15 lf 987,7 hPa 0,0 l/m 0 min 0 min 0 W/m 10,5 km/h (2 Bft) 95,74 %
04.01.2016 08:26 3,4 C 3,3 C 2,8 C 97 % 15 lf 987,7 hPa 0,0 l/m 0 min 0 min 0 W/m 12,6 km/h (3 Bft) 95,74 %
04.01.2016 08:28 3,5 C 3,9 C 2,8 C 97 % 15 lf 987,7 hPa 0,0 l/m 0 min 0 min 0 W/m 8,4 km/h (2 Bft) 97,87 %
04.01.2016 08:30 3,5 C 3,3 C 2,8 C 97 % 15 lf 987,7 hPa 0,0 l/m 0 min 0 min 0 W/m 10,5 km/h (2 Bft) 100,00 %
04.01.2016 08:32 3,5 C 3,9 C 2,8 C 97 % 15 lf 987,7 hPa 0,0 l/m 0 min 0 min 0 W/m 8,4 km/h (2 Bft) 100,00 %
04.01.2016 08:34 3,5 C 3,9 C 2,8 C 97 % 15 lf 987,7 hPa 0,0 l/m 0 min 0 min 0 W/m 8,4 km/h (2 Bft) 97,83 %
04.01.2016 08:36 3,5 C 3,9 C 2,2 C 97 % 15 lf 987,8 hPa 0,0 l/m 0 min 0 min 0 W/m 12,6 km/h (3 Bft) 97,87 %
04.01.2016 08:38 3,5 C 3,9 C 2,2 C 97 % 15 lf 987,7 hPa 0,0 l/m 0 min 0 min 0 W/m 10,5 km/h (2 Bft) 97,87 %
04.01.2016 08:40 3,6 C 3,9 C 2,2 C 97 % 15 lf 987,8 hPa 0,0 l/m 0 min 0 min 0 W/m 8,4 km/h (2 Bft) 97,87 %
04.01.2016 08:42 3,5 C 3,9 C 2,8 C 97 % 15 lf 987,8 hPa 0,0 l/m 0 min 0 min 0 W/m 10,5 km/h (2 Bft) 97,87 %
04.01.2016 08:44 3,6 C 3,9 C 2,8 C 97 % 15 lf 987,8 hPa 0,0 l/m 0 min 0 min 0 W/m 8,4 km/h (2 Bft) 97,87 %
04.01.2016 08:46 3,6 C 3,9 C 2,8 C 97 % 15 lf 987,9 hPa 0,0 l/m 0 min 0 min 0 W/m 8,4 km/h (2 Bft) 95,65 %
04.01.2016 08:48 3,6 C 3,9 C 2,8 C 97 % 15 lf 987,9 hPa 0,0 l/m 0 min 0 min 0 W/m 14,6 km/h (3 Bft) 93,62 %
04.01.2016 08:50 3,6 C 3,9 C 2,8 C 97 % 15 lf 987,9 hPa 0,0 l/m 0 min 0 min 0 W/m 8,4 km/h (2 Bft) 97,87 %
04.01.2016 08:52 3,6 C 3,9 C 2,8 C 97 % 15 lf 987,9 hPa 0,0 l/m 0 min 0 min 0 W/m 10,5 km/h (2 Bft) 95,74 %
04.01.2016 08:54 3,6 C 3,9 C 2,8 C 97 % 15 lf 987,9 hPa 0,0 l/m 0 min 0 min 0 W/m 12,6 km/h (3 Bft) 97,87 %
04.01.2016 08:56 3,6 C 3,9 C 2,8 C 97 % 15 lf 987,9 hPa 0,0 l/m 0 min 0 min 0 W/m 14,6 km/h (3 Bft) 93,48 %
04.01.2016 08:58 3,6 C 3,9 C 2,8 C 97 % 15 lf 987,9 hPa 0,0 l/m 0 min 0 min 0 W/m 10,5 km/h (2 Bft) 93,62 %
04.01.2016 09:00 3,6 C 3,9 C 2,8 C 97 % 15 lf 988,1 hPa 0,0 l/m 0 min 0 min 0 W/m 10,5 km/h (2 Bft) 93,62 %
04.01.2016 09:02 3,6 C 3,9 C 2,8 C 97 % 15 lf 988,0 hPa 0,0 l/m 0 min 0 min 0 W/m 16,7 km/h (3 Bft) 95,74 %
04.01.2016 09:04 3,6 C 3,9 C 2,8 C 97 % 15 lf 988,0 hPa 0,0 l/m 0 min 0 min 0 W/m 16,7 km/h (3 Bft) 95,74 %
04.01.2016 09:06 3,6 C 3,9 C 2,8 C 98 % 15 lf 988,0 hPa 0,0 l/m 0 min 0 min 0 W/m 16,7 km/h (3 Bft) 93,62 %
04.01.2016 09:08 3,7 C 3,9 C 2,8 C 98 % 15 lf 988,0 hPa 0,0 l/m 0 min 0 min 0 W/m 8,4 km/h (2 Bft) 95,65 %
04.01.2016 09:10 3,7 C 3,9 C 2,8 C 98 % 15 lf 988,0 hPa 0,0 l/m 0 min 0 min 4 W/m 6,3 km/h (2 Bft) 91,49 %
04.01.2016 09:11 3,7 C 3,9 C 2,8 C 98 % 15 lf 988,0 hPa 0,0 l/m 0 min 0 min 11 W/m 12,6 km/h (3 Bft) 91,30 %
04.01.2016 09:12 3,7 C 3,9 C 2,8 C 98 % 15 lf 988,0 hPa 0,0 l/m 0 min 0 min 11 W/m 10,5 km/h (2 Bft) 100,00 %
04.01.2016 09:13 3,7 C 3,9 C 2,8 C 98 % 15 lf 988,0 hPa 0,0 l/m 0 min 0 min 11 W/m 16,7 km/h (3 Bft) 95,65 %
04.01.2016 09:16 3,7 C 3,9 C 2,8 C 98 % 15 lf 988,1 hPa 0,0 l/m 0 min 0 min 11 W/m 12,6 km/h (3 Bft) 93,22 %
04.01.2016 09:18 3,7 C 3,9 C 2,8 C 98 % 15 lf 988,0 hPa 0,0 l/m 0 min 2 min 11 W/m 10,5 km/h (2 Bft) 97,87 %
04.01.2016 09:20 3,7 C 3,9 C 2,8 C 98 % 15 lf 988,0 hPa 0,0 l/m 0 min 2 min 12 W/m 10,5 km/h (2 Bft) 95,74 %
04.01.2016 09:23 3,7 C 3,9 C 2,8 C 98 % 15 lf 988,1 hPa 0,0 l/m 0 min 0 min 14 W/m 12,6 km/h (3 Bft) 96,10 %
04.01.2016 09:24 3,7 C 3,9 C 2,8 C 98 % 15 lf 988,1 hPa 0,0 l/m 0 min 0 min 14 W/m 6,3 km/h (2 Bft) 100,00 %
04.01.2016 09:26 3,8 C 3,9 C 2,8 C 98 % 15 lf 988,1 hPa 0,0 l/m 0 min 2 min 16 W/m 8,4 km/h (2 Bft) 93,62 %
04.01.2016 09:28 3,8 C 3,9 C 2,8 C 98 % 15 lf 988,1 hPa 0,0 l/m 0 min 2 min 18 W/m 6,3 km/h (2 Bft) 97,83 %
04.01.2016 09:30 3,8 C 3,9 C 2,8 C 98 % 15 lf 988,1 hPa 0,0 l/m 0 min 2 min 19 W/m 10,5 km/h (2 Bft) 97,87 %
04.01.2016 09:33 3,8 C 3,9 C 2,8 C 98 % 15 lf 988,2 hPa 0,0 l/m 0 min 2 min 19 W/m 10,5 km/h (2 Bft) 95,95 %
04.01.2016 09:34 3,8 C 3,9 C 2,8 C 98 % 15 lf 988,2 hPa 0,0 l/m 0 min 1 min 19 W/m 10,5 km/h (2 Bft) 95,83 %
04.01.2016 09:36 3,8 C 3,9 C 2,8 C 98 % 15 lf 988,2 hPa 0,0 l/m 0 min 2 min 19 W/m 12,6 km/h (3 Bft) 93,62 %
04.01.2016 09:38 3,8 C 3,9 C 2,8 C 98 % 15 lf 988,3 hPa 0,0 l/m 0 min 2 min 20 W/m 8,4 km/h (2 Bft) 97,87 %
04.01.2016 09:40 3,9 C 3,9 C 2,8 C 98 % 15 lf 988,2 hPa 0,0 l/m 0 min 2 min 22 W/m 6,3 km/h (2 Bft) 97,87 %
04.01.2016 09:43 3,9 C 4,4 C 3,3 C 98 % 15 lf 988,2 hPa 0,0 l/m 0 min 2 min 25 W/m 8,4 km/h (2 Bft) 95,71 %
04.01.2016 09:44 3,9 C 4,4 C 2,8 C 98 % 15 lf 988,2 hPa 0,0 l/m 0 min 1 min 28 W/m 8,4 km/h (2 Bft) 95,65 %
04.01.2016 09:46 3,9 C 4,4 C 3,3 C 98 % 15 lf 988,2 hPa 0,0 l/m 0 min 2 min 29 W/m 8,4 km/h (2 Bft) 93,62 %
04.01.2016 09:47 3,9 C 4,4 C 3,3 C 98 % 15 lf 988,3 hPa 0,0 l/m 0 min 1 min 30 W/m 8,4 km/h (2 Bft) 91,30 %
04.01.2016 09:50 3,9 C 4,4 C 3,3 C 98 % 15 lf 988,2 hPa 0,0 l/m 0 min 0 min 29 W/m 8,4 km/h (2 Bft) 91,53 %
04.01.2016 09:52 3,9 C 4,4 C 3,3 C 98 % 15 lf 988,4 hPa 0,0 l/m 0 min 2 min 30 W/m 12,6 km/h (3 Bft) 93,62 %
04.01.2016 09:54 4,0 C 4,4 C 3,3 C 98 % 15 lf 988,3 hPa 0,0 l/m 0 min 2 min 30 W/m 8,4 km/h (2 Bft) 93,62 %
04.01.2016 09:56 4,0 C 4,4 C 3,3 C 98 % 15 lf 988,4 hPa 0,0 l/m 0 min 2 min 30 W/m 10,5 km/h (2 Bft) 95,65 %
04.01.2016 09:58 4,1 C 4,4 C 3,3 C 98 % 15 lf 988,4 hPa 0,2 l/m 0 min 2 min 28 W/m 10,5 km/h (2 Bft) 91,49 %
04.01.2016 10:00 4,1 C 4,4 C 3,3 C 98 % 15 lf 988,4 hPa 0,0 l/m 0 min 2 min 29 W/m 6,3 km/h (2 Bft) 95,74 %
04.01.2016 10:03 4,1 C 4,4 C 3,3 C 98 % 15 lf 988,2 hPa 0,0 l/m 0 min 2 min 28 W/m 8,4 km/h (2 Bft) 94,29 %
04.01.2016 10:04 4,1 C 4,4 C 3,3 C 98 % 15 lf 988,2 hPa 0,0 l/m 0 min 0 min 30 W/m 6,3 km/h (2 Bft) 95,83 %
04.01.2016 10:06 4,1 C 4,4 C 3,3 C 98 % 15 lf 988,4 hPa 0,0 l/m 0 min 0 min 35 W/m 8,4 km/h (2 Bft) 93,62 %
04.01.2016 10:08 4,2 C 4,4 C 3,3 C 98 % 15 lf 988,3 hPa 0,0 l/m 0 min 0 min 37 W/m 8,4 km/h (2 Bft) 95,65 %
04.01.2016 10:10 4,2 C 4,4 C 3,3 C 98 % 15 lf 988,3 hPa 0,0 l/m 0 min 0 min 43 W/m 4,2 km/h (1 Bft) 93,62 %
04.01.2016 10:13 4,2 C 4,4 C 3,3 C 98 % 15 lf 988,2 hPa 0,0 l/m 0 min 0 min 47 W/m 10,5 km/h (2 Bft) 97,18 %
04.01.2016 10:14 4,2 C 4,4 C 3,3 C 98 % 15 lf 988,2 hPa 0,0 l/m 0 min 0 min 51 W/m 6,3 km/h (2 Bft) 100,00 %
04.01.2016 10:16 4,2 C 4,4 C 3,3 C 98 % 15 lf 988,2 hPa 0,0 l/m 0 min 0 min 54 W/m 10,5 km/h (2 Bft) 97,87 %
04.01.2016 10:18 4,3 C 4,4 C 3,3 C 98 % 15 lf 988,2 hPa 0,0 l/m 0 min 0 min 53 W/m 6,3 km/h (2 Bft) 91,49 %
04.01.2016 10:20 4,3 C 5,0 C 3,9 C 98 % 15 lf 988,3 hPa 0,0 l/m 0 min 0 min 53 W/m 6,3 km/h (2 Bft) 95,65 %
04.01.2016 10:21 4,3 C 5,0 C 3,9 C 98 % 15 lf 988,3 hPa 0,0 l/m 0 min 0 min 54 W/m 8,4 km/h (2 Bft) 91,30 %
04.01.2016 10:22 4,3 C 5,0 C 3,3 C 98 % 15 lf 988,3 hPa 0,0 l/m 0 min 0 min 54 W/m 6,3 km/h (2 Bft) 95,65 %
04.01.2016 10:23 4,3 C 5,0 C 3,3 C 98 % 15 lf 988,3 hPa 0,0 l/m 0 min 0 min 57 W/m 6,3 km/h (2 Bft) 91,30 %
04.01.2016 10:24 4,3 C 5,0 C 3,9 C 98 % 15 lf 988,3 hPa 0,0 l/m 0 min 0 min 54 W/m 10,5 km/h (2 Bft) 86,96 %
04.01.2016 10:25 4,3 C 5,0 C 3,9 C 98 % 15 lf 988,4 hPa 0,0 l/m 0 min 0 min 53 W/m 6,3 km/h (2 Bft) 100,00 %
04.01.2016 10:26 4,4 C 5,0 C 3,9 C 98 % 15 lf 988,4 hPa 0,0 l/m 0 min 0 min 54 W/m 6,3 km/h (2 Bft) 91,30 %
04.01.2016 10:27 4,4 C 5,0 C 3,9 C 98 % 15 lf 988,3 hPa 0,0 l/m 0 min 0 min 51 W/m 6,3 km/h (2 Bft) 100,00 %
04.01.2016 10:30 4,4 C 5,0 C 3,9 C 98 % 15 lf 988,4 hPa 0,0 l/m 0 min 0 min 52 W/m 6,3 km/h (2 Bft) 92,11 %
04.01.2016 10:31 4,4 C 5,0 C 3,9 C 98 % 15 lf 988,4 hPa 0,0 l/m 0 min 0 min 47 W/m 6,3 km/h (2 Bft) 86,96 %
04.01.2016 10:32 4,4 C 5,0 C 3,9 C 98 % 15 lf 988,4 hPa 0,0 l/m 0 min 0 min 47 W/m 6,3 km/h (2 Bft) 100,00 %
04.01.2016 10:33 4,4 C 5,0 C 3,9 C 98 % 15 lf 988,4 hPa 0,0 l/m 0 min 0 min 49 W/m 6,3 km/h (2 Bft) 91,30 %
04.01.2016 10:34 4,4 C 5,0 C 3,9 C 98 % 15 lf 988,4 hPa 0,0 l/m 0 min 0 min 49 W/m 6,3 km/h (2 Bft) 100,00 %
04.01.2016 10:36 4,5 C 5,0 C 3,9 C 98 % 15 lf 988,4 hPa 0,0 l/m 0 min 0 min 49 W/m 4,2 km/h (1 Bft) 93,84 %
04.01.2016 10:38 4,5 C 5,0 C 3,9 C 98 % 15 lf 988,4 hPa 0,0 l/m 0 min 0 min 58 W/m 6,3 km/h (2 Bft) 95,74 %
04.01.2016 10:40 4,6 C 5,0 C 3,9 C 98 % 15 lf 988,4 hPa 0,0 l/m 0 min 0 min 70 W/m 8,4 km/h (2 Bft) 95,74 %
04.01.2016 10:42 4,6 C 5,0 C 3,9 C 98 % 15 lf 988,4 hPa 0,0 l/m 0 min 0 min 80 W/m 8,4 km/h (2 Bft) 91,49 %
04.01.2016 10:44 4,6 C 5,6 C 4,4 C 98 % 15 lf 988,4 hPa 0,0 l/m 0 min 0 min 95 W/m 10,5 km/h (2 Bft) 95,65 %
04.01.2016 10:46 4,7 C 5,6 C 4,4 C 98 % 15 lf 988,4 hPa 0,0 l/m 0 min 0 min 100 W/m 8,4 km/h (2 Bft) 93,62 %
04.01.2016 10:48 4,7 C 5,6 C 4,4 C 98 % 15 lf 988,4 hPa 0,0 l/m 0 min 0 min 102 W/m 6,3 km/h (2 Bft) 93,62 %
04.01.2016 10:50 4,7 C 5,6 C 4,4 C 98 % 15 lf 988,4 hPa 0,0 l/m 0 min 0 min 102 W/m 8,4 km/h (2 Bft) 93,62 %
04.01.2016 10:52 4,8 C 5,6 C 4,4 C 98 % 15 lf 988,5 hPa 0,0 l/m 0 min 0 min 106 W/m 6,3 km/h (2 Bft) 95,74 %
04.01.2016 10:54 4,9 C 5,6 C 4,4 C 98 % 15 lf 988,4 hPa 0,0 l/m 0 min 0 min 106 W/m 6,3 km/h (2 Bft) 95,74 %
04.01.2016 10:56 4,9 C 5,6 C 4,4 C 98 % 15 lf 988,4 hPa 0,0 l/m 0 min 0 min 107 W/m 8,4 km/h (2 Bft) 93,62 %
04.01.2016 10:58 4,9 C 5,6 C 4,4 C 98 % 15 lf 988,4 hPa 0,0 l/m 0 min 0 min 105 W/m 6,3 km/h (2 Bft) 93,48 %
04.01.2016 11:00 5,0 C 5,6 C 4,4 C 98 % 15 lf 988,5 hPa 0,0 l/m 0 min 0 min 99 W/m 6,3 km/h (2 Bft) 89,36 %
04.01.2016 11:02 5,1 C 6,1 C 4,4 C 98 % 15 lf 988,5 hPa 0,0 l/m 0 min 0 min 84 W/m 6,3 km/h (2 Bft) 97,87 %
04.01.2016 11:04 5,1 C 6,1 C 4,4 C 98 % 15 lf 988,5 hPa 0,0 l/m 0 min 0 min 73 W/m 6,3 km/h (2 Bft) 95,74 %
04.01.2016 11:06 5,2 C 6,1 C 4,4 C 98 % 15 lf 988,5 hPa 0,0 l/m 0 min 0 min 70 W/m 6,3 km/h (2 Bft) 97,87 %
04.01.2016 11:08 5,2 C 6,1 C 5,0 C 98 % 15 lf 988,5 hPa 0,0 l/m 0 min 0 min 70 W/m 6,3 km/h (2 Bft) 97,83 %
04.01.2016 11:10 5,3 C 6,1 C 5,0 C 98 % 15 lf 988,5 hPa 0,0 l/m 0 min 0 min 73 W/m 8,4 km/h (2 Bft) 97,87 %
04.01.2016 11:12 5,3 C 6,1 C 5,0 C 98 % 14 lf 988,4 hPa 0,0 l/m 0 min 0 min 78 W/m 6,3 km/h (2 Bft) 97,87 %
04.01.2016 11:14 5,4 C 6,1 C 5,0 C 98 % 14 lf 988,5 hPa 0,0 l/m 0 min 0 min 84 W/m 10,5 km/h (2 Bft) 100,00 %
04.01.2016 11:16 5,4 C 6,7 C 5,0 C 98 % 14 lf 988,5 hPa 0,0 l/m 0 min 0 min 83 W/m 12,6 km/h (3 Bft) 93,62 %
04.01.2016 11:18 5,5 C 6,7 C 5,0 C 98 % 14 lf 988,5 hPa 0,0 l/m 0 min 0 min 83 W/m 12,6 km/h (3 Bft) 100,00 %
04.01.2016 11:20 5,6 C 6,7 C 5,0 C 98 % 14 lf 988,5 hPa 0,0 l/m 0 min 0 min 77 W/m 8,4 km/h (2 Bft) 97,83 %
04.01.2016 11:22 5,6 C 6,7 C 5,6 C 98 % 14 lf 988,5 hPa 0,0 l/m 0 min 0 min 76 W/m 6,3 km/h (2 Bft) 100,00 %
04.01.2016 11:24 5,7 C 6,7 C 5,6 C 98 % 14 lf 988,5 hPa 0,0 l/m 0 min 0 min 72 W/m 12,6 km/h (3 Bft) 97,87 %
04.01.2016 11:26 5,7 C 6,7 C 5,6 C 98 % 13 lf 988,4 hPa 0,0 l/m 0 min 0 min 77 W/m 14,6 km/h (3 Bft) 97,87 %
04.01.2016 11:28 5,8 C 7,2 C 5,6 C 98 % 13 lf 988,5 hPa 0,0 l/m 0 min 0 min 72 W/m 10,5 km/h (2 Bft) 93,62 %
04.01.2016 11:30 5,9 C 6,7 C 5,6 C 98 % 13 lf 988,5 hPa 0,0 l/m 0 min 0 min 65 W/m 16,7 km/h (3 Bft) 100,00 %
04.01.2016 11:32 6,0 C 6,7 C 5,6 C 99 % 13 lf 988,5 hPa 0,0 l/m 0 min 0 min 62 W/m 12,6 km/h (3 Bft) 93,48 %
04.01.2016 11:34 6,1 C 7,2 C 5,6 C 99 % 12 lf 988,5 hPa 0,0 l/m 0 min 0 min 60 W/m 8,4 km/h (2 Bft) 100,00 %
04.01.2016 11:36 6,1 C 7,2 C 5,6 C 98 % 12 lf 988,5 hPa 0,0 l/m 0 min 0 min 58 W/m 8,4 km/h (2 Bft) 97,87 %
04.01.2016 11:38 6,2 C 7,2 C 5,6 C 98 % 12 lf 988,5 hPa 0,0 l/m 0 min 0 min 65 W/m 12,6 km/h (3 Bft) 100,00 %
04.01.2016 11:40 6,2 C 7,2 C 5,6 C 98 % 11 lf 988,5 hPa 0,0 l/m 0 min 0 min 63 W/m 14,6 km/h (3 Bft) 95,74 %
04.01.2016 11:42 6,3 C 7,2 C 5,6 C 99 % 11 lf 988,5 hPa 0,0 l/m 0 min 0 min 61 W/m 16,7 km/h (3 Bft) 100,00 %
04.01.2016 11:44 6,4 C 7,2 C 5,6 C 99 % 10 lf 988,5 hPa 0,0 l/m 0 min 0 min 53 W/m 12,6 km/h (3 Bft) 100,00 %
04.01.2016 11:46 6,4 C 6,7 C 5,6 C 99 % 12 lf 988,5 hPa 0,0 l/m 0 min 2 min 49 W/m 18,8 km/h (3 Bft) 97,87 %
04.01.2016 11:48 6,4 C 6,7 C 5,6 C 99 % 14 lf 988,5 hPa 0,0 l/m 0 min 2 min 47 W/m 12,6 km/h (3 Bft) 97,87 %
04.01.2016 11:50 6,4 C 6,7 C 5,6 C 99 % 15 lf 988,5 hPa 0,0 l/m 0 min 2 min 47 W/m 12,6 km/h (3 Bft) 100,00 %
04.01.2016 11:52 6,4 C 6,7 C 5,6 C 99 % 15 lf 988,5 hPa 0,0 l/m 0 min 2 min 51 W/m 12,6 km/h (3 Bft) 100,00 %
04.01.2016 11:54 6,4 C 6,7 C 5,6 C 99 % 15 lf 988,5 hPa 0,0 l/m 0 min 2 min 64 W/m 16,7 km/h (3 Bft) 100,00 %
04.01.2016 11:56 6,5 C 7,2 C 5,6 C 99 % 15 lf 988,5 hPa 0,2 l/m 0 min 2 min 83 W/m 14,6 km/h (3 Bft) 97,87 %
04.01.2016 11:58 6,5 C 7,2 C 5,6 C 99 % 15 lf 988,5 hPa 0,0 l/m 0 min 2 min 95 W/m 14,6 km/h (3 Bft) 97,87 %
04.01.2016 12:00 6,6 C 7,2 C 5,6 C 99 % 15 lf 988,5 hPa 0,0 l/m 0 min 2 min 109 W/m 18,8 km/h (3 Bft) 100,00 %
04.01.2016 12:02 6,6 C 7,2 C 5,6 C 99 % 15 lf 988,5 hPa 0,0 l/m 0 min 2 min 100 W/m 10,5 km/h (2 Bft) 100,00 %
04.01.2016 12:04 6,6 C 7,2 C 6,1 C 99 % 15 lf 988,5 hPa 0,0 l/m 0 min 2 min 95 W/m 10,5 km/h (2 Bft) 100,00 %
04.01.2016 12:06 6,6 C 7,2 C 6,1 C 99 % 15 lf 988,5 hPa 0,0 l/m 0 min 2 min 101 W/m 10,5 km/h (2 Bft) 100,00 %
04.01.2016 12:08 6,7 C 7,2 C 6,1 C 99 % 15 lf 988,5 hPa 0,0 l/m 0 min 2 min 106 W/m 10,5 km/h (2 Bft) 100,00 %
04.01.2016 12:10 6,7 C 7,8 C 6,1 C 99 % 15 lf 988,4 hPa 0,0 l/m 0 min 0 min 110 W/m 10,5 km/h (2 Bft) 97,87 %
04.01.2016 12:12 6,7 C 7,8 C 6,1 C 99 % 15 lf 988,5 hPa 0,0 l/m 0 min 0 min 119 W/m 14,6 km/h (3 Bft) 97,87 %
04.01.2016 12:14 6,8 C 7,8 C 6,1 C 99 % 15 lf 988,5 hPa 0,0 l/m 0 min 0 min 114 W/m 10,5 km/h (2 Bft) 100,00 %
04.01.2016 12:16 6,8 C 7,8 C 6,1 C 99 % 15 lf 988,5 hPa 0,0 l/m 0 min 0 min 99 W/m 12,6 km/h (3 Bft) 97,87 %
04.01.2016 12:18 6,8 C 7,2 C 6,1 C 99 % 15 lf 988,5 hPa 0,0 l/m 0 min 0 min 85 W/m 10,5 km/h (2 Bft) 100,00 %
04.01.2016 12:20 6,9 C 7,8 C 6,1 C 99 % 15 lf 988,5 hPa 0,0 l/m 0 min 0 min 90 W/m 8,4 km/h (2 Bft) 95,74 %
04.01.2016 12:22 6,9 C 7,8 C 6,1 C 99 % 15 lf 988,5 hPa 0,0 l/m 0 min 0 min 114 W/m 8,4 km/h (2 Bft) 95,74 %
04.01.2016 12:24 6,9 C 7,8 C 6,1 C 99 % 15 lf 988,5 hPa 0,0 l/m 0 min 0 min 108 W/m 8,4 km/h (2 Bft) 93,62 %
04.01.2016 12:26 6,9 C 7,8 C 6,1 C 99 % 15 lf 988,5 hPa 0,0 l/m 0 min 0 min 83 W/m 12,6 km/h (3 Bft) 95,74 %
04.01.2016 12:28 7,0 C 7,8 C 6,1 C 99 % 15 lf 988,5 hPa 0,0 l/m 0 min 0 min 95 W/m 10,5 km/h (2 Bft) 93,62 %
04.01.2016 12:30 7,0 C 7,8 C 6,1 C 99 % 15 lf 988,4 hPa 0,0 l/m 0 min 0 min 96 W/m 16,7 km/h (3 Bft) 93,48 %
04.01.2016 12:32 7,0 C 7,8 C 6,1 C 99 % 15 lf 988,5 hPa 0,0 l/m 0 min 0 min 89 W/m 10,5 km/h (2 Bft) 97,87 %
04.01.2016 12:34 7,1 C 7,8 C 6,1 C 99 % 15 lf 988,5 hPa 0,0 l/m 0 min 0 min 81 W/m 12,6 km/h (3 Bft) 95,74 %
04.01.2016 12:36 7,1 C 7,8 C 6,1 C 99 % 15 lf 988,5 hPa 0,0 l/m 0 min 0 min 78 W/m 12,6 km/h (3 Bft) 95,74 %
04.01.2016 12:38 7,1 C 7,8 C 6,1 C 99 % 15 lf 988,5 hPa 0,0 l/m 0 min 0 min 77 W/m 16,7 km/h (3 Bft) 89,36 %
04.01.2016 12:40 7,1 C 7,8 C 6,1 C 99 % 15 lf 988,5 hPa 0,0 l/m 0 min 0 min 82 W/m 18,8 km/h (3 Bft) 95,74 %
04.01.2016 12:42 7,1 C 7,8 C 6,1 C 99 % 15 lf 988,5 hPa 0,0 l/m 0 min 0 min 94 W/m 10,5 km/h (2 Bft) 91,30 %
04.01.2016 12:44 7,1 C 7,8 C 6,1 C 99 % 15 lf 988,5 hPa 0,0 l/m 0 min 0 min 112 W/m 14,6 km/h (3 Bft) 93,62 %
04.01.2016 12:46 7,1 C 8,3 C 6,1 C 99 % 15 lf 988,5 hPa 0,0 l/m 2 min 0 min 143 W/m 16,7 km/h (3 Bft) 93,62 %
04.01.2016 12:48 7,2 C 8,3 C 6,7 C 99 % 14 lf 988,5 hPa 0,0 l/m 0 min 0 min 136 W/m 12,6 km/h (3 Bft) 95,74 %
04.01.2016 12:50 7,2 C 8,3 C 6,7 C 99 % 13 lf 988,5 hPa 0,0 l/m 0 min 0 min 119 W/m 16,7 km/h (3 Bft) 93,62 %
04.01.2016 12:52 7,2 C 8,3 C 6,7 C 99 % 13 lf 988,5 hPa 0,0 l/m 0 min 0 min 110 W/m 12,6 km/h (3 Bft) 95,65 %
04.01.2016 12:54 7,2 C 8,3 C 6,7 C 99 % 12 lf 988,5 hPa 0,0 l/m 0 min 0 min 98 W/m 14,6 km/h (3 Bft) 95,74 %
04.01.2016 12:56 7,3 C 7,8 C 6,1 C 99 % 10 lf 988,5 hPa 0,0 l/m 0 min 0 min 83 W/m 14,6 km/h (3 Bft) 91,49 %
04.01.2016 12:58 7,3 C 7,8 C 6,1 C 99 % 9 lf 988,6 hPa 0,0 l/m 0 min 0 min 73 W/m 14,6 km/h (3 Bft) 91,49 %
04.01.2016 13:00 7,3 C 7,8 C 6,1 C 99 % 7 lf 988,5 hPa 0,0 l/m 0 min 0 min 67 W/m 20,9 km/h (4 Bft) 93,62 %
04.01.2016 13:02 7,3 C 7,8 C 6,1 C 99 % 5 lf 988,6 hPa 0,0 l/m 0 min 0 min 75 W/m 16,7 km/h (3 Bft) 93,62 %
04.01.2016 13:04 7,3 C 7,8 C 6,1 C 99 % 4 lf 988,6 hPa 0,0 l/m 0 min 0 min 64 W/m 18,8 km/h (3 Bft) 95,65 %
04.01.2016 13:06 7,3 C 7,8 C 6,1 C 99 % 3 lf 988,6 hPa 0,0 l/m 0 min 0 min 64 W/m 12,6 km/h (3 Bft) 93,62 %
04.01.2016 13:08 7,3 C 7,8 C 6,1 C 99 % 3 lf 988,5 hPa 0,0 l/m 0 min 0 min 82 W/m 14,6 km/h (3 Bft) 93,62 %
04.01.2016 13:10 7,3 C 7,8 C 6,1 C 99 % 1 lf 988,5 hPa 0,0 l/m 0 min 0 min 94 W/m 23,0 km/h (4 Bft) 93,62 %
04.01.2016 13:12 7,3 C 7,8 C 6,1 C 99 % 1 lf 988,6 hPa 0,0 l/m 0 min 0 min 93 W/m 20,9 km/h (4 Bft) 95,74 %
04.01.2016 13:14 7,3 C 7,8 C 6,1 C 99 % 0 lf 988,6 hPa 0,0 l/m 0 min 0 min 90 W/m 20,9 km/h (4 Bft) 89,36 %
04.01.2016 13:16 7,3 C 7,8 C 6,1 C 99 % 0 lf 988,6 hPa 0,0 l/m 0 min 0 min 77 W/m 18,8 km/h (3 Bft) 93,48 %
04.01.2016 13:18 7,3 C 7,8 C 6,1 C 99 % 0 lf 988,6 hPa 0,0 l/m 0 min 0 min 65 W/m 18,8 km/h (3 Bft) 91,49 %
04.01.2016 13:20 7,3 C 7,8 C 6,1 C 99 % 0 lf 988,6 hPa 0,0 l/m 0 min 0 min 63 W/m 23,0 km/h (4 Bft) 95,74 %
04.01.2016 13:22 7,3 C 7,8 C 6,1 C 99 % 0 lf 988,6 hPa 0,0 l/m 0 min 0 min 76 W/m 14,6 km/h (3 Bft) 93,62 %
04.01.2016 13:24 7,3 C 7,8 C 6,1 C 99 % 0 lf 988,6 hPa 0,0 l/m 0 min 0 min 78 W/m 18,8 km/h (3 Bft) 93,62 %
04.01.2016 13:26 7,3 C 7,8 C 6,1 C 99 % 0 lf 988,6 hPa 0,0 l/m 0 min 0 min 84 W/m 12,6 km/h (3 Bft) 93,62 %
04.01.2016 13:28 7,3 C 7,8 C 6,1 C 99 % 0 lf 988,6 hPa 0,0 l/m 0 min 0 min 75 W/m 14,6 km/h (3 Bft) 93,48 %
04.01.2016 13:30 7,3 C 7,8 C 6,1 C 99 % 0 lf 988,6 hPa 0,0 l/m 0 min 0 min 70 W/m 10,5 km/h (2 Bft) 95,74 %
04.01.2016 13:32 7,3 C 7,8 C 6,1 C 99 % 0 lf 988,5 hPa 0,0 l/m 0 min 0 min 73 W/m 12,6 km/h (3 Bft) 95,74 %
04.01.2016 13:34 7,3 C 7,8 C 6,1 C 99 % 0 lf 988,6 hPa 0,0 l/m 0 min 0 min 66 W/m 16,7 km/h (3 Bft) 97,87 %
04.01.2016 13:36 7,3 C 7,8 C 6,1 C 99 % 0 lf 988,6 hPa 0,0 l/m 0 min 0 min 67 W/m 18,8 km/h (3 Bft) 93,62 %
04.01.2016 13:38 7,3 C 7,8 C 6,1 C 99 % 0 lf 988,6 hPa 0,0 l/m 0 min 0 min 65 W/m 12,6 km/h (3 Bft) 93,62 %
04.01.2016 13:40 7,3 C 7,8 C 6,1 C 99 % 0 lf 988,6 hPa 0,0 l/m 0 min 0 min 67 W/m 14,6 km/h (3 Bft) 95,65 %
04.01.2016 13:42 7,3 C 7,8 C 6,1 C 99 % 0 lf 988,6 hPa 0,0 l/m 0 min 0 min 72 W/m 14,6 km/h (3 Bft) 95,74 %
04.01.2016 13:44 7,3 C 7,8 C 6,1 C 99 % 0 lf 988,6 hPa 0,0 l/m 0 min 0 min 67 W/m 14,6 km/h (3 Bft) 91,49 %
04.01.2016 13:46 7,3 C 7,8 C 6,1 C 99 % 0 lf 988,5 hPa 0,0 l/m 0 min 0 min 59 W/m 12,6 km/h (3 Bft) 95,74 %
04.01.2016 13:48 7,3 C 7,8 C 6,1 C 99 % 0 lf 988,6 hPa 0,0 l/m 0 min 0 min 62 W/m 12,6 km/h (3 Bft) 93,62 %
04.01.2016 13:50 7,3 C 7,8 C 6,1 C 98 % 0 lf 988,6 hPa 0,0 l/m 0 min 0 min 58 W/m 10,5 km/h (2 Bft) 95,74 %
04.01.2016 13:52 7,3 C 7,8 C 6,1 C 98 % 0 lf 988,6 hPa 0,0 l/m 0 min 0 min 63 W/m 12,6 km/h (3 Bft) 93,48 %
04.01.2016 13:54 7,3 C 7,8 C 6,1 C 98 % 0 lf 988,6 hPa 0,0 l/m 0 min 0 min 69 W/m 10,5 km/h (2 Bft) 93,62 %
04.01.2016 13:56 7,4 C 7,8 C 6,1 C 98 % 0 lf 988,6 hPa 0,0 l/m 0 min 0 min 77 W/m 10,5 km/h (2 Bft) 95,74 %
04.01.2016 13:58 7,4 C 7,8 C 6,1 C 98 % 0 lf 988,6 hPa 0,0 l/m 0 min 0 min 77 W/m 10,5 km/h (2 Bft) 95,74 %
04.01.2016 14:00 7,4 C 7,8 C 6,1 C 98 % 0 lf 988,6 hPa 0,0 l/m 0 min 0 min 72 W/m 10,5 km/h (2 Bft) 95,74 %
04.01.2016 14:02 7,4 C 7,8 C 6,1 C 98 % 0 lf 988,6 hPa 0,0 l/m 0 min 0 min 63 W/m 12,6 km/h (3 Bft) 93,62 %
04.01.2016 14:04 7,4 C 7,8 C 6,1 C 98 % 0 lf 988,6 hPa 0,0 l/m 0 min 0 min 47 W/m 12,6 km/h (3 Bft) 93,48 %
04.01.2016 14:06 7,4 C 7,8 C 6,1 C 98 % 0 lf 988,6 hPa 0,0 l/m 0 min 0 min 37 W/m 8,4 km/h (2 Bft) 95,74 %
04.01.2016 14:08 7,4 C 7,8 C 6,1 C 98 % 1 lf 988,6 hPa 0,0 l/m 0 min 0 min 37 W/m 10,5 km/h (2 Bft) 95,74 %
04.01.2016 14:10 7,4 C 7,2 C 6,1 C 98 % 3 lf 988,6 hPa 0,0 l/m 0 min 0 min 39 W/m 20,9 km/h (4 Bft) 100,00 %
04.01.2016 14:12 7,4 C 7,2 C 6,1 C 98 % 4 lf 988,6 hPa 0,0 l/m 0 min 0 min 39 W/m 14,6 km/h (3 Bft) 97,87 %
04.01.2016 14:14 7,4 C 7,2 C 6,1 C 98 % 6 lf 988,6 hPa 0,0 l/m 0 min 0 min 37 W/m 18,8 km/h (3 Bft) 97,83 %
04.01.2016 14:16 7,4 C 7,2 C 6,1 C 98 % 10 lf 988,6 hPa 0,0 l/m 0 min 0 min 29 W/m 10,5 km/h (2 Bft) 93,62 %
04.01.2016 14:18 7,4 C 7,2 C 5,6 C 98 % 15 lf 988,6 hPa 0,0 l/m 0 min 0 min 26 W/m 8,4 km/h (2 Bft) 97,87 %
04.01.2016 14:20 7,4 C 7,2 C 5,6 C 98 % 15 lf 988,7 hPa 0,0 l/m 0 min 2 min 28 W/m 8,4 km/h (2 Bft) 97,87 %
04.01.2016 14:22 7,4 C 7,2 C 5,6 C 98 % 15 lf 988,6 hPa 0,0 l/m 0 min 2 min 33 W/m 8,4 km/h (2 Bft) 93,62 %
04.01.2016 14:24 7,4 C 7,2 C 5,6 C 98 % 15 lf 988,6 hPa 0,0 l/m 0 min 0 min 47 W/m 8,4 km/h (2 Bft) 97,87 %
04.01.2016 14:26 7,3 C 7,2 C 5,6 C 98 % 15 lf 988,7 hPa 0,0 l/m 0 min 0 min 41 W/m 14,6 km/h (3 Bft) 95,65 %
04.01.2016 14:28 7,3 C 7,2 C 5,6 C 98 % 15 lf 988,6 hPa 0,0 l/m 0 min 0 min 31 W/m 10,5 km/h (2 Bft) 97,87 %
04.01.2016 14:30 7,3 C 7,2 C 5,6 C 98 % 15 lf 988,7 hPa 0,0 l/m 0 min 0 min 41 W/m 12,6 km/h (3 Bft) 97,87 %
04.01.2016 14:32 7,3 C 7,2 C 6,1 C 98 % 15 lf 988,7 hPa 0,0 l/m 0 min 0 min 47 W/m 12,6 km/h (3 Bft) 95,74 %
04.01.2016 14:34 7,3 C 7,2 C 5,6 C 98 % 15 lf 988,7 hPa 0,0 l/m 0 min 2 min 45 W/m 10,5 km/h (2 Bft) 97,87 %
04.01.2016 14:36 7,3 C 7,2 C 5,6 C 98 % 15 lf 988,7 hPa 0,0 l/m 0 min 2 min 51 W/m 14,6 km/h (3 Bft) 93,62 %
04.01.2016 14:38 7,3 C 7,2 C 5,6 C 98 % 15 lf 988,7 hPa 0,0 l/m 0 min 0 min 54 W/m 14,6 km/h (3 Bft) 97,83 %
04.01.2016 14:40 7,3 C 7,2 C 5,6 C 98 % 15 lf 988,7 hPa 0,0 l/m 0 min 0 min 49 W/m 14,6 km/h (3 Bft) 95,74 %
04.01.2016 14:42 7,3 C 7,2 C 5,6 C 98 % 15 lf 988,7 hPa 0,0 l/m 0 min 0 min 58 W/m 14,6 km/h (3 Bft) 97,87 %
04.01.2016 14:44 7,2 C 7,2 C 5,6 C 98 % 15 lf 988,7 hPa 0,0 l/m 0 min 0 min 61 W/m 12,6 km/h (3 Bft) 97,87 %
04.01.2016 14:46 7,2 C 7,2 C 6,1 C 98 % 15 lf 988,6 hPa 0,0 l/m 0 min 0 min 56 W/m 12,6 km/h (3 Bft) 97,87 %
04.01.2016 14:48 7,2 C 7,2 C 5,6 C 98 % 15 lf 988,7 hPa 0,0 l/m 0 min 0 min 43 W/m 18,8 km/h (3 Bft) 100,00 %
04.01.2016 14:50 7,2 C 6,7 C 5,6 C 98 % 15 lf 988,7 hPa 0,0 l/m 0 min 0 min 36 W/m 14,6 km/h (3 Bft) 97,83 %
04.01.2016 14:52 7,2 C 6,7 C 5,6 C 98 % 15 lf 988,7 hPa 0,0 l/m 0 min 2 min 33 W/m 10,5 km/h (2 Bft) 97,87 %
04.01.2016 14:54 7,2 C 6,7 C 5,6 C 98 % 15 lf 988,7 hPa 0,0 l/m 0 min 0 min 31 W/m 14,6 km/h (3 Bft) 97,87 %
04.01.2016 14:56 7,2 C 6,7 C 5,6 C 97 % 15 lf 988,7 hPa 0,0 l/m 0 min 0 min 28 W/m 10,5 km/h (2 Bft) 95,74 %
04.01.2016 14:58 7,2 C 6,7 C 5,6 C 98 % 15 lf 988,7 hPa 0,0 l/m 0 min 2 min 25 W/m 10,5 km/h (2 Bft) 93,62 %
04.01.2016 15:00 7,2 C 6,7 C 5,6 C 98 % 15 lf 988,7 hPa 0,0 l/m 0 min 2 min 24 W/m 8,4 km/h (2 Bft) 100,00 %
04.01.2016 15:02 7,2 C 6,7 C 5,6 C 98 % 15 lf 988,7 hPa 0,0 l/m 0 min 0 min 20 W/m 10,5 km/h (2 Bft) 100,00 %
04.01.2016 15:04 7,1 C 6,7 C 5,6 C 98 % 15 lf 988,6 hPa 0,0 l/m 0 min 2 min 20 W/m 12,6 km/h (3 Bft) 97,87 %
04.01.2016 15:06 7,1 C 6,7 C 5,6 C 98 % 15 lf 988,7 hPa 0,0 l/m 0 min 2 min 26 W/m 8,4 km/h (2 Bft) 100,00 %
04.01.2016 15:08 7,1 C 6,7 C 5,6 C 98 % 15 lf 988,7 hPa 0,0 l/m 0 min 2 min 25 W/m 10,5 km/h (2 Bft) 97,87 %
04.01.2016 15:10 7,1 C 6,7 C 5,6 C 98 % 15 lf 988,7 hPa 0,2 l/m 0 min 2 min 20 W/m 6,3 km/h (2 Bft) 97,87 %
04.01.2016 15:12 7,1 C 6,7 C 5,6 C 98 % 15 lf 988,7 hPa 0,0 l/m 0 min 2 min 19 W/m 10,5 km/h (2 Bft) 100,00 %
04.01.2016 15:14 7,1 C 6,7 C 5,6 C 97 % 15 lf 988,7 hPa 0,0 l/m 0 min 2 min 21 W/m 10,5 km/h (2 Bft) 97,83 %
04.01.2016 15:16 7,1 C 6,7 C 5,6 C 97 % 15 lf 988,8 hPa 0,0 l/m 0 min 0 min 26 W/m 10,5 km/h (2 Bft) 97,87 %
04.01.2016 15:18 7,0 C 6,7 C 5,6 C 97 % 15 lf 988,7 hPa 0,0 l/m 0 min 2 min 23 W/m 8,4 km/h (2 Bft) 97,87 %
04.01.2016 15:20 7,0 C 6,7 C 5,6 C 97 % 15 lf 988,7 hPa 0,0 l/m 0 min 0 min 21 W/m 6,3 km/h (2 Bft) 95,74 %
04.01.2016 15:22 7,0 C 6,7 C 5,6 C 97 % 15 lf 988,7 hPa 0,0 l/m 0 min 2 min 21 W/m 6,3 km/h (2 Bft) 97,87 %
04.01.2016 15:24 7,0 C 6,7 C 5,6 C 97 % 15 lf 988,8 hPa 0,0 l/m 0 min 0 min 20 W/m 6,3 km/h (2 Bft) 95,65 %
04.01.2016 15:26 7,0 C 6,7 C 5,6 C 97 % 15 lf 988,8 hPa 0,0 l/m 0 min 0 min 20 W/m 4,2 km/h (1 Bft) 95,74 %
04.01.2016 15:28 7,0 C 6,7 C 5,6 C 97 % 15 lf 988,8 hPa 0,0 l/m 0 min 0 min 25 W/m 10,5 km/h (2 Bft) 93,62 %
04.01.2016 15:30 6,9 C 6,7 C 5,6 C 97 % 15 lf 988,8 hPa 0,0 l/m 0 min 0 min 22 W/m 10,5 km/h (2 Bft) 97,87 %
04.01.2016 15:32 7,0 C 6,7 C 5,6 C 97 % 15 lf 988,8 hPa 0,0 l/m 0 min 0 min 17 W/m 12,6 km/h (3 Bft) 95,74 %
04.01.2016 15:34 6,9 C 6,7 C 5,6 C 97 % 15 lf 988,9 hPa 0,0 l/m 0 min 0 min 16 W/m 6,3 km/h (2 Bft) 97,87 %
04.01.2016 15:36 6,9 C 6,7 C 5,6 C 97 % 15 lf 988,8 hPa 0,0 l/m 0 min 0 min 16 W/m 8,4 km/h (2 Bft) 93,48 %
04.01.2016 15:38 6,9 C 6,7 C 5,6 C 97 % 15 lf 988,9 hPa 0,0 l/m 0 min 0 min 15 W/m 12,6 km/h (3 Bft) 97,87 %
04.01.2016 15:40 6,9 C 6,7 C 5,6 C 97 % 15 lf 988,9 hPa 0,0 l/m 0 min 2 min 13 W/m 8,4 km/h (2 Bft) 93,62 %
04.01.2016 15:42 6,9 C 6,7 C 5,6 C 97 % 15 lf 988,9 hPa 0,0 l/m 0 min 2 min 12 W/m 10,5 km/h (2 Bft) 97,87 %
04.01.2016 15:44 6,9 C 6,7 C 5,6 C 97 % 15 lf 989,0 hPa 0,0 l/m 0 min 2 min 14 W/m 8,4 km/h (2 Bft) 98,00 %
04.01.2016 15:46 6,9 C 6,7 C 5,6 C 97 % 15 lf 989,0 hPa 0,0 l/m 0 min 0 min 13 W/m 6,3 km/h (2 Bft) 95,74 %
04.01.2016 15:48 6,9 C 6,7 C 5,6 C 97 % 15 lf 988,9 hPa 0,0 l/m 0 min 0 min 13 W/m 6,3 km/h (2 Bft) 95,65 %
04.01.2016 15:50 6,9 C 6,7 C 5,6 C 97 % 15 lf 988,9 hPa 0,0 l/m 0 min 0 min 16 W/m 6,3 km/h (2 Bft) 95,74 %
04.01.2016 15:52 6,9 C 6,7 C 5,6 C 97 % 15 lf 988,9 hPa 0,0 l/m 0 min 0 min 17 W/m 6,3 km/h (2 Bft) 95,74 %
04.01.2016 15:54 6,9 C 6,7 C 5,6 C 97 % 15 lf 989,0 hPa 0,0 l/m 0 min 0 min 18 W/m 8,4 km/h (2 Bft) 94,44 %
04.01.2016 15:56 6,9 C 6,7 C 5,6 C 97 % 15 lf 989,0 hPa 0,0 l/m 0 min 0 min 15 W/m 6,3 km/h (2 Bft) 97,87 %
04.01.2016 15:58 6,9 C 6,7 C 5,6 C 97 % 15 lf 988,9 hPa 0,0 l/m 0 min 0 min 12 W/m 8,4 km/h (2 Bft) 95,74 %
04.01.2016 16:00 6,9 C 6,7 C 5,6 C 97 % 15 lf 989,0 hPa 0,0 l/m 0 min 0 min 15 W/m 8,4 km/h (2 Bft) 95,92 %
04.01.2016 16:02 6,9 C 6,7 C 5,6 C 97 % 15 lf 989,0 hPa 0,0 l/m 0 min 0 min 18 W/m 10,5 km/h (2 Bft) 100,00 %
04.01.2016 16:04 6,9 C 6,7 C 5,6 C 97 % 15 lf 989,0 hPa 0,0 l/m 0 min 0 min 17 W/m 10,5 km/h (2 Bft) 94,00 %
04.01.2016 16:06 6,9 C 6,7 C 5,6 C 97 % 15 lf 989,0 hPa 0,0 l/m 0 min 0 min 14 W/m 10,5 km/h (2 Bft) 98,00 %
04.01.2016 16:08 6,9 C 6,7 C 5,6 C 97 % 15 lf 989,0 hPa 0,0 l/m 0 min 0 min 12 W/m 6,3 km/h (2 Bft) 100,00 %
04.01.2016 16:10 6,9 C 6,7 C 5,6 C 97 % 15 lf 989,0 hPa 0,0 l/m 0 min 0 min 11 W/m 6,3 km/h (2 Bft) 91,07 %
04.01.2016 16:12 6,9 C 6,7 C 5,6 C 97 % 15 lf 989,1 hPa 0,0 l/m 0 min 0 min 12 W/m 10,5 km/h (2 Bft) 100,00 %
04.01.2016 16:14 6,9 C 6,7 C 5,6 C 97 % 15 lf 989,1 hPa 0,0 l/m 0 min 0 min 11 W/m 10,5 km/h (2 Bft) 97,87 %
04.01.2016 16:16 6,9 C 6,7 C 5,6 C 97 % 15 lf 989,1 hPa 0,0 l/m 0 min 2 min 11 W/m 6,3 km/h (2 Bft) 96,49 %
04.01.2016 16:18 6,9 C 6,7 C 5,6 C 97 % 15 lf 989,1 hPa 0,2 l/m 0 min 2 min 13 W/m 14,6 km/h (3 Bft) 95,74 %
04.01.2016 16:20 6,8 C 6,7 C 5,6 C 97 % 15 lf 989,1 hPa 0,0 l/m 0 min 2 min 14 W/m 8,4 km/h (2 Bft) 95,74 %
04.01.2016 16:22 6,8 C 6,7 C 5,6 C 97 % 15 lf 989,1 hPa 0,0 l/m 0 min 2 min 14 W/m 12,6 km/h (3 Bft) 91,89 %
04.01.2016 16:24 6,8 C 6,7 C 5,6 C 97 % 15 lf 989,2 hPa 0,0 l/m 0 min 2 min 12 W/m 8,4 km/h (2 Bft) 97,83 %
04.01.2016 16:26 6,8 C 6,7 C 5,6 C 97 % 15 lf 989,2 hPa 0,0 l/m 0 min 2 min 10 W/m 12,6 km/h (3 Bft) 95,83 %
04.01.2016 16:28 6,8 C 6,7 C 5,6 C 97 % 15 lf 989,1 hPa 0,0 l/m 0 min 0 min 8 W/m 8,4 km/h (2 Bft) 94,64 %
04.01.2016 16:30 6,8 C 6,7 C 5,6 C 97 % 15 lf 989,2 hPa 0,0 l/m 0 min 0 min 7 W/m 6,3 km/h (2 Bft) 95,74 %
04.01.2016 16:32 6,8 C 6,7 C 5,6 C 97 % 15 lf 989,1 hPa 0,0 l/m 0 min 0 min 6 W/m 6,3 km/h (2 Bft) 93,62 %
04.01.2016 16:34 6,8 C 6,7 C 5,6 C 97 % 15 lf 989,1 hPa 0,0 l/m 0 min 0 min 5 W/m 8,4 km/h (2 Bft) 94,74 %
04.01.2016 16:36 6,8 C 6,7 C 5,6 C 97 % 15 lf 989,1 hPa 0,0 l/m 0 min 0 min 5 W/m 6,3 km/h (2 Bft) 95,74 %
04.01.2016 16:38 6,8 C 6,7 C 5,6 C 97 % 15 lf 989,1 hPa 0,0 l/m 0 min 0 min 5 W/m 6,3 km/h (2 Bft) 97,83 %
04.01.2016 16:40 6,8 C 6,7 C 5,6 C 97 % 15 lf 989,2 hPa 0,0 l/m 0 min 0 min 2 W/m 6,3 km/h (2 Bft) 93,62 %
04.01.2016 16:42 6,8 C 6,7 C 5,6 C 97 % 15 lf 989,2 hPa 0,0 l/m 0 min 0 min 0 W/m 8,4 km/h (2 Bft) 93,62 %
04.01.2016 16:44 6,8 C 6,7 C 5,6 C 97 % 15 lf 989,2 hPa 0,0 l/m 0 min 0 min 0 W/m 6,3 km/h (2 Bft) 98,21 %
04.01.2016 16:46 6,8 C 6,7 C 5,6 C 97 % 15 lf 989,3 hPa 0,0 l/m 0 min 2 min 0 W/m 8,4 km/h (2 Bft) 95,65 %
04.01.2016 16:48 6,8 C 6,7 C 5,6 C 97 % 15 lf 989,2 hPa 0,0 l/m 0 min 2 min 0 W/m 8,4 km/h (2 Bft) 97,87 %
04.01.2016 16:50 6,8 C 6,7 C 5,6 C 97 % 15 lf 989,3 hPa 0,0 l/m 0 min 2 min 0 W/m 8,4 km/h (2 Bft) 95,74 %
04.01.2016 16:52 6,8 C 6,7 C 5,6 C 97 % 15 lf 989,3 hPa 0,0 l/m 0 min 2 min 0 W/m 6,3 km/h (2 Bft) 97,37 %
04.01.2016 16:54 6,8 C 6,7 C 5,6 C 97 % 15 lf 989,3 hPa 0,0 l/m 0 min 0 min 0 W/m 6,3 km/h (2 Bft) 96,43 %
04.01.2016 16:56 6,8 C 6,7 C 5,6 C 97 % 15 lf 989,3 hPa 0,0 l/m 0 min 0 min 0 W/m 6,3 km/h (2 Bft) 97,87 %
04.01.2016 16:58 6,8 C 6,7 C 5,6 C 97 % 15 lf 989,3 hPa 0,0 l/m 0 min 0 min 0 W/m 8,4 km/h (2 Bft) 94,74 %
04.01.2016 17:00 6,8 C 6,7 C 5,6 C 97 % 15 lf 989,3 hPa 0,0 l/m 0 min 0 min 0 W/m 8,4 km/h (2 Bft) 97,83 %
04.01.2016 17:02 6,7 C 6,7 C 5,6 C 97 % 15 lf 989,3 hPa 0,0 l/m 0 min 0 min 0 W/m 4,2 km/h (1 Bft) 98,18 %
04.01.2016 17:04 6,7 C 6,7 C 5,6 C 97 % 15 lf 989,3 hPa 0,0 l/m 0 min 0 min 0 W/m 4,2 km/h (1 Bft) 97,37 %
04.01.2016 17:06 6,7 C 6,7 C 5,6 C 97 % 15 lf 989,4 hPa 0,0 l/m 0 min 0 min 0 W/m 6,3 km/h (2 Bft) 96,23 %
04.01.2016 17:08 6,7 C 6,7 C 5,6 C 97 % 15 lf 989,3 hPa 0,0 l/m 0 min 0 min 0 W/m 6,3 km/h (2 Bft) 100,00 %
04.01.2016 17:10 6,7 C 6,7 C 5,6 C 97 % 15 lf 989,4 hPa 0,0 l/m 0 min 0 min 0 W/m 6,3 km/h (2 Bft) 95,65 %
04.01.2016 17:12 6,7 C 6,7 C 5,6 C 97 % 15 lf 989,3 hPa 0,0 l/m 0 min 0 min 0 W/m 4,2 km/h (1 Bft) 95,74 %
04.01.2016 17:14 6,7 C 6,7 C 5,6 C 97 % 15 lf 989,3 hPa 0,0 l/m 0 min 0 min 0 W/m 8,4 km/h (2 Bft) 96,00 %
04.01.2016 17:16 6,7 C 6,7 C 5,6 C 97 % 15 lf 989,4 hPa 0,0 l/m 0 min 0 min 0 W/m 6,3 km/h (2 Bft) 95,74 %
04.01.2016 17:18 6,7 C 6,7 C 5,6 C 97 % 15 lf 989,4 hPa 0,0 l/m 0 min 0 min 0 W/m 6,3 km/h (2 Bft) 95,74 %
04.01.2016 17:20 6,7 C 6,7 C 5,6 C 97 % 15 lf 989,4 hPa 0,0 l/m 0 min 0 min 0 W/m 4,2 km/h (1 Bft) 100,00 %
04.01.2016 17:22 6,7 C 6,7 C 5,6 C 97 % 15 lf 989,3 hPa 0,0 l/m 0 min 0 min 0 W/m 10,5 km/h (2 Bft) 94,83 %
04.01.2016 17:24 6,7 C 6,7 C 5,6 C 97 % 15 lf 989,4 hPa 0,0 l/m 0 min 0 min 0 W/m 8,4 km/h (2 Bft) 94,34 %
04.01.2016 17:26 6,7 C 6,7 C 5,6 C 97 % 15 lf 989,3 hPa 0,0 l/m 0 min 0 min 0 W/m 8,4 km/h (2 Bft) 98,00 %
04.01.2016 17:28 6,7 C 6,7 C 5,6 C 97 % 15 lf 989,3 hPa 0,0 l/m 0 min 0 min 0 W/m 6,3 km/h (2 Bft) 96,00 %
04.01.2016 17:30 6,7 C 6,7 C 5,6 C 97 % 15 lf 989,3 hPa 0,0 l/m 0 min 0 min 0 W/m 8,4 km/h (2 Bft) 91,43 %
04.01.2016 17:32 6,7 C 6,7 C 5,6 C 97 % 15 lf 989,4 hPa 0,0 l/m 0 min 0 min 0 W/m 8,4 km/h (2 Bft) 98,11 %
04.01.2016 17:34 6,7 C 6,7 C 5,6 C 97 % 15 lf 989,4 hPa 0,0 l/m 0 min 0 min 0 W/m 10,5 km/h (2 Bft) 93,88 %
04.01.2016 17:36 6,7 C 6,7 C 5,6 C 97 % 15 lf 989,4 hPa 0,0 l/m 0 min 0 min 0 W/m 10,5 km/h (2 Bft) 96,00 %
04.01.2016 17:38 6,7 C 6,7 C 5,6 C 97 % 15 lf 989,4 hPa 0,0 l/m 0 min 0 min 0 W/m 8,4 km/h (2 Bft) 94,29 %
04.01.2016 17:40 6,7 C 6,7 C 5,6 C 97 % 15 lf 989,4 hPa 0,0 l/m 0 min 0 min 0 W/m 4,2 km/h (1 Bft) 98,11 %
04.01.2016 17:42 6,7 C 6,7 C 5,6 C 97 % 15 lf 989,4 hPa 0,0 l/m 0 min 0 min 0 W/m 8,4 km/h (2 Bft) 94,00 %
04.01.2016 17:44 6,7 C 6,7 C 5,6 C 97 % 15 lf 989,4 hPa 0,0 l/m 0 min 0 min 0 W/m 12,6 km/h (3 Bft) 95,65 %
04.01.2016 17:46 6,7 C 6,7 C 5,6 C 97 % 15 lf 989,4 hPa 0,0 l/m 0 min 0 min 0 W/m 8,4 km/h (2 Bft) 95,74 %
04.01.2016 17:48 6,7 C 6,7 C 5,6 C 97 % 15 lf 989,4 hPa 0,0 l/m 0 min 0 min 0 W/m 8,4 km/h (2 Bft) 95,74 %
04.01.2016 17:50 6,7 C 6,7 C 5,6 C 98 % 15 lf 989,4 hPa 0,0 l/m 0 min 0 min 0 W/m 6,3 km/h (2 Bft) 93,62 %
04.01.2016 17:52 6,7 C 6,7 C 5,6 C 98 % 15 lf 989,4 hPa 0,0 l/m 0 min 0 min 0 W/m 6,3 km/h (2 Bft) 94,00 %
04.01.2016 17:54 6,7 C 6,7 C 5,6 C 98 % 15 lf 989,3 hPa 0,0 l/m 0 min 0 min 0 W/m 8,4 km/h (2 Bft) 91,43 %
04.01.2016 17:56 6,7 C 6,7 C 5,6 C 98 % 15 lf 989,3 hPa 0,0 l/m 0 min 0 min 0 W/m 6,3 km/h (2 Bft) 93,48 %
04.01.2016 17:58 6,7 C 6,7 C 5,6 C 98 % 15 lf 989,4 hPa 0,0 l/m 0 min 0 min 0 W/m 6,3 km/h (2 Bft) 96,23 %
04.01.2016 18:00 6,7 C 6,7 C 5,6 C 98 % 15 lf 989,3 hPa 0,0 l/m 0 min 0 min 0 W/m 4,2 km/h (1 Bft) 94,00 %
04.01.2016 18:02 6,7 C 6,7 C 5,6 C 98 % 15 lf 989,3 hPa 0,0 l/m 0 min 0 min 0 W/m 6,3 km/h (2 Bft) 93,18 %
04.01.2016 18:04 6,7 C 6,7 C 5,6 C 98 % 15 lf 989,3 hPa 0,0 l/m 0 min 0 min 0 W/m 8,4 km/h (2 Bft) 90,00 %
04.01.2016 18:06 6,8 C 6,7 C 5,6 C 98 % 15 lf 989,3 hPa 0,0 l/m 0 min 0 min 0 W/m 6,3 km/h (2 Bft) 91,30 %
04.01.2016 18:08 6,8 C 6,7 C 5,6 C 98 % 15 lf 989,3 hPa 0,0 l/m 0 min 0 min 0 W/m 8,4 km/h (2 Bft) 94,44 %
04.01.2016 18:10 6,7 C 6,7 C 5,6 C 98 % 15 lf 989,4 hPa 0,0 l/m 0 min 0 min 0 W/m 4,2 km/h (1 Bft) 93,48 %
04.01.2016 18:12 6,8 C 6,7 C 5,6 C 98 % 15 lf 989,4 hPa 0,0 l/m 0 min 0 min 0 W/m 8,4 km/h (2 Bft) 93,62 %
04.01.2016 18:14 6,8 C 6,7 C 5,6 C 98 % 15 lf 989,4 hPa 0,0 l/m 0 min 0 min 0 W/m 6,3 km/h (2 Bft) 93,62 %
04.01.2016 18:16 6,8 C 6,7 C 5,6 C 98 % 15 lf 989,4 hPa 0,0 l/m 0 min 0 min 0 W/m 6,3 km/h (2 Bft) 91,53 %
04.01.2016 18:18 6,8 C 6,7 C 5,6 C 98 % 15 lf 989,4 hPa 0,0 l/m 0 min 0 min 0 W/m 4,2 km/h (1 Bft) 95,65 %
04.01.2016 18:20 6,8 C 6,7 C 5,6 C 98 % 15 lf 989,5 hPa 0,0 l/m 0 min 0 min 0 W/m 4,2 km/h (1 Bft) 95,74 %
04.01.2016 18:22 6,8 C 6,7 C 5,6 C 98 % 15 lf 989,5 hPa 0,0 l/m 0 min 0 min 0 W/m 10,5 km/h (2 Bft) 95,74 %
04.01.2016 18:24 6,8 C 6,7 C 5,6 C 98 % 15 lf 989,5 hPa 0,0 l/m 0 min 0 min 0 W/m 6,3 km/h (2 Bft) 94,29 %
04.01.2016 18:26 6,8 C 6,7 C 5,6 C 98 % 15 lf 989,5 hPa 0,0 l/m 0 min 0 min 0 W/m 8,4 km/h (2 Bft) 95,74 %
04.01.2016 18:28 6,8 C 6,7 C 5,6 C 98 % 15 lf 989,5 hPa 0,0 l/m 0 min 0 min 0 W/m 8,4 km/h (2 Bft) 95,74 %
04.01.2016 18:30 6,8 C 6,7 C 5,6 C 98 % 15 lf 989,5 hPa 0,0 l/m 0 min 0 min 0 W/m 8,4 km/h (2 Bft) 95,74 %
04.01.2016 18:32 6,8 C 6,7 C 5,6 C 98 % 15 lf 989,5 hPa 0,0 l/m 0 min 0 min 0 W/m 8,4 km/h (2 Bft) 94,83 %
04.01.2016 18:34 6,8 C 6,7 C 5,6 C 98 % 15 lf 989,5 hPa 0,0 l/m 0 min 0 min 0 W/m 6,3 km/h (2 Bft) 94,29 %
04.01.2016 18:36 6,8 C 6,7 C 5,6 C 98 % 15 lf 989,5 hPa 0,0 l/m 0 min 0 min 0 W/m 8,4 km/h (2 Bft) 98,18 %
04.01.2016 18:38 6,8 C 6,7 C 5,6 C 98 % 15 lf 989,5 hPa 0,0 l/m 0 min 2 min 0 W/m 8,4 km/h (2 Bft) 98,00 %
04.01.2016 18:40 6,8 C 6,7 C 5,6 C 98 % 15 lf 989,5 hPa 0,0 l/m 0 min 2 min 0 W/m 6,3 km/h (2 Bft) 93,75 %
04.01.2016 18:42 6,8 C 6,7 C 5,6 C 98 % 15 lf 989,5 hPa 0,0 l/m 0 min 2 min 0 W/m 6,3 km/h (2 Bft) 97,83 %
04.01.2016 18:44 6,8 C 6,7 C 5,6 C 98 % 15 lf 989,5 hPa 0,0 l/m 0 min 0 min 0 W/m 8,4 km/h (2 Bft) 94,29 %
04.01.2016 18:46 6,8 C 6,7 C 5,6 C 98 % 15 lf 989,5 hPa 0,0 l/m 0 min 0 min 0 W/m 12,6 km/h (3 Bft) 97,87 %
04.01.2016 18:48 6,8 C 6,7 C 5,6 C 98 % 15 lf 989,5 hPa 0,0 l/m 0 min 0 min 0 W/m 8,4 km/h (2 Bft) 100,00 %
04.01.2016 18:50 6,8 C 6,7 C 5,6 C 98 % 15 lf 989,5 hPa 0,0 l/m 0 min 0 min 0 W/m 10,5 km/h (2 Bft) 100,00 %
04.01.2016 18:52 6,8 C 6,7 C 5,6 C 98 % 15 lf 989,5 hPa 0,0 l/m 0 min 0 min 0 W/m 8,4 km/h (2 Bft) 98,28 %
04.01.2016 18:54 6,8 C 6,7 C 5,6 C 98 % 15 lf 989,5 hPa 0,0 l/m 0 min 0 min 0 W/m 10,5 km/h (2 Bft) 97,87 %
04.01.2016 18:56 6,7 C 6,7 C 5,6 C 98 % 15 lf 989,6 hPa 0,0 l/m 0 min 0 min 0 W/m 8,4 km/h (2 Bft) 100,00 %
04.01.2016 18:58 6,7 C 6,7 C 5,6 C 98 % 15 lf 989,5 hPa 0,0 l/m 0 min 0 min 0 W/m 8,4 km/h (2 Bft) 97,87 %
04.01.2016 19:00 6,7 C 6,7 C 5,6 C 98 % 15 lf 989,5 hPa 0,0 l/m 0 min 0 min 0 W/m 8,4 km/h (2 Bft) 97,37 %
04.01.2016 19:02 6,7 C 6,7 C 5,6 C 98 % 15 lf 989,5 hPa 0,0 l/m 0 min 0 min 0 W/m 6,3 km/h (2 Bft) 97,87 %
04.01.2016 19:04 6,7 C 6,7 C 5,6 C 98 % 15 lf 989,6 hPa 0,0 l/m 0 min 0 min 0 W/m 8,4 km/h (2 Bft) 100,00 %
04.01.2016 19:06 6,7 C 6,7 C 5,6 C 98 % 15 lf 989,6 hPa 0,0 l/m 0 min 0 min 0 W/m 8,4 km/h (2 Bft) 100,00 %
04.01.2016 19:08 6,7 C 6,7 C 5,0 C 98 % 15 lf 989,5 hPa 0,0 l/m 0 min 0 min 0 W/m 10,5 km/h (2 Bft) 98,18 %
04.01.2016 19:10 6,7 C 6,7 C 5,0 C 98 % 15 lf 989,6 hPa 0,0 l/m 0 min 0 min 0 W/m 10,5 km/h (2 Bft) 100,00 %
04.01.2016 19:12 6,7 C 6,7 C 5,0 C 98 % 15 lf 989,6 hPa 0,0 l/m 0 min 0 min 0 W/m 10,5 km/h (2 Bft) 95,74 %
04.01.2016 19:14 6,7 C 6,7 C 5,0 C 98 % 15 lf 989,5 hPa 0,0 l/m 0 min 0 min 0 W/m 12,6 km/h (3 Bft) 100,00 %
04.01.2016 19:16 6,7 C 6,7 C 5,0 C 97 % 15 lf 989,6 hPa 0,0 l/m 0 min 0 min 0 W/m 12,6 km/h (3 Bft) 97,87 %
04.01.2016 19:18 6,7 C 6,7 C 5,0 C 97 % 15 lf 989,6 hPa 0,0 l/m 0 min 0 min 0 W/m 12,6 km/h (3 Bft) 98,18 %
04.01.2016 19:20 6,7 C 6,7 C 5,0 C 97 % 15 lf 989,6 hPa 0,0 l/m 0 min 0 min 0 W/m 10,5 km/h (2 Bft) 97,87 %
04.01.2016 19:22 6,7 C 6,7 C 5,0 C 97 % 15 lf 989,6 hPa 0,0 l/m 0 min 0 min 0 W/m 14,6 km/h (3 Bft) 95,74 %
04.01.2016 19:24 6,7 C 6,7 C 5,0 C 97 % 15 lf 989,5 hPa 0,0 l/m 0 min 0 min 0 W/m 10,5 km/h (2 Bft) 100,00 %
04.01.2016 19:26 6,7 C 6,7 C 5,0 C 97 % 15 lf 989,6 hPa 0,0 l/m 0 min 0 min 0 W/m 8,4 km/h (2 Bft) 93,62 %
04.01.2016 19:28 6,7 C 6,7 C 5,0 C 97 % 15 lf 989,6 hPa 0,0 l/m 0 min 0 min 0 W/m 10,5 km/h (2 Bft) 97,87 %
04.01.2016 19:30 6,7 C 6,7 C 5,0 C 97 % 15 lf 989,6 hPa 0,0 l/m 0 min 0 min 0 W/m 6,3 km/h (2 Bft) 96,36 %
04.01.2016 19:32 6,7 C 6,7 C 5,0 C 97 % 15 lf 989,5 hPa 0,0 l/m 0 min 0 min 0 W/m 10,5 km/h (2 Bft) 97,37 %
04.01.2016 19:34 6,7 C 6,7 C 5,0 C 97 % 15 lf 989,6 hPa 0,0 l/m 0 min 2 min 0 W/m 14,6 km/h (3 Bft) 96,49 %
04.01.2016 19:36 6,7 C 6,7 C 5,0 C 97 % 15 lf 989,5 hPa 0,0 l/m 0 min 2 min 0 W/m 12,6 km/h (3 Bft) 97,87 %
04.01.2016 19:38 6,7 C 6,7 C 5,0 C 97 % 15 lf 989,5 hPa 0,0 l/m 0 min 0 min 0 W/m 6,3 km/h (2 Bft) 93,62 %
04.01.2016 19:40 6,7 C 6,7 C 5,0 C 97 % 15 lf 989,6 hPa 0,0 l/m 0 min 0 min 0 W/m 12,6 km/h (3 Bft) 95,74 %
04.01.2016 19:42 6,7 C 6,7 C 5,0 C 97 % 15 lf 989,6 hPa 0,0 l/m 0 min 0 min 0 W/m 8,4 km/h (2 Bft) 94,74 %
04.01.2016 19:44 6,7 C 6,7 C 5,0 C 97 % 15 lf 989,6 hPa 0,0 l/m 0 min 0 min 0 W/m 8,4 km/h (2 Bft) 97,83 %
04.01.2016 19:46 6,7 C 6,7 C 5,0 C 97 % 15 lf 989,6 hPa 0,0 l/m 0 min 0 min 0 W/m 6,3 km/h (2 Bft) 93,62 %
04.01.2016 19:48 6,7 C 6,7 C 5,0 C 97 % 15 lf 989,6 hPa 0,0 l/m 0 min 0 min 0 W/m 6,3 km/h (2 Bft) 93,62 %
04.01.2016 19:50 6,7 C 6,7 C 5,0 C 97 % 15 lf 989,6 hPa 0,0 l/m 0 min 0 min 0 W/m 6,3 km/h (2 Bft) 95,74 %
04.01.2016 19:52 6,7 C 6,7 C 5,0 C 97 % 15 lf 989,6 hPa 0,0 l/m 0 min 2 min 0 W/m 8,4 km/h (2 Bft) 95,74 %
04.01.2016 19:54 6,7 C 6,7 C 5,0 C 97 % 15 lf 989,7 hPa 0,0 l/m 0 min 0 min 0 W/m 8,4 km/h (2 Bft) 91,49 %
04.01.2016 19:56 6,7 C 6,7 C 5,0 C 97 % 15 lf 989,7 hPa 0,0 l/m 0 min 0 min 0 W/m 10,5 km/h (2 Bft) 95,65 %
04.01.2016 19:58 6,7 C 6,7 C 5,0 C 97 % 15 lf 989,7 hPa 0,0 l/m 0 min 0 min 0 W/m 6,3 km/h (2 Bft) 97,87 %
04.01.2016 20:00 6,7 C 6,7 C 5,0 C 97 % 15 lf 989,7 hPa 0,0 l/m 0 min 0 min 0 W/m 10,5 km/h (2 Bft) 91,49 %
04.01.2016 20:02 6,7 C 6,7 C 5,0 C 97 % 15 lf 989,7 hPa 0,0 l/m 0 min 0 min 0 W/m 8,4 km/h (2 Bft) 88,10 %
04.01.2016 20:04 6,7 C 6,7 C 5,0 C 97 % 15 lf 989,8 hPa 0,0 l/m 0 min 0 min 0 W/m 6,3 km/h (2 Bft) 92,00 %
04.01.2016 20:06 6,7 C 6,7 C 5,0 C 97 % 15 lf 989,8 hPa 0,0 l/m 0 min 0 min 0 W/m 8,4 km/h (2 Bft) 91,30 %
04.01.2016 20:08 6,7 C 6,7 C 5,0 C 97 % 15 lf 989,8 hPa 0,0 l/m 0 min 0 min 0 W/m 6,3 km/h (2 Bft) 95,74 %
04.01.2016 20:10 6,7 C 6,7 C 5,0 C 97 % 15 lf 989,8 hPa 0,0 l/m 0 min 0 min 0 W/m 6,3 km/h (2 Bft) 97,87 %
04.01.2016 20:12 6,7 C 6,7 C 5,0 C 97 % 15 lf 989,8 hPa 0,0 l/m 0 min 0 min 0 W/m 6,3 km/h (2 Bft) 97,87 %
04.01.2016 20:14 6,7 C 6,7 C 5,0 C 97 % 15 lf 989,9 hPa 0,0 l/m 0 min 0 min 0 W/m 6,3 km/h (2 Bft) 97,87 %
04.01.2016 20:16 6,7 C 6,7 C 5,0 C 97 % 15 lf 989,9 hPa 0,0 l/m 0 min 0 min 0 W/m 6,3 km/h (2 Bft) 97,87 %
04.01.2016 20:18 6,7 C 6,7 C 5,0 C 97 % 15 lf 989,9 hPa 0,0 l/m 0 min 0 min 0 W/m 6,3 km/h (2 Bft) 97,83 %
04.01.2016 20:20 6,7 C 6,7 C 5,0 C 97 % 15 lf 989,9 hPa 0,0 l/m 0 min 0 min 0 W/m 10,5 km/h (2 Bft) 97,87 %
04.01.2016 20:22 6,7 C 6,7 C 5,0 C 97 % 15 lf 989,8 hPa 0,0 l/m 0 min 0 min 0 W/m 6,3 km/h (2 Bft) 97,87 %
04.01.2016 20:24 6,7 C 6,7 C 5,0 C 97 % 15 lf 989,9 hPa 0,0 l/m 0 min 0 min 0 W/m 8,4 km/h (2 Bft) 95,74 %
04.01.2016 20:26 6,7 C 6,7 C 5,0 C 98 % 15 lf 990,0 hPa 0,0 l/m 0 min 0 min 0 W/m 8,4 km/h (2 Bft) 100,00 %
04.01.2016 20:28 6,7 C 6,7 C 5,0 C 98 % 15 lf 990,0 hPa 0,0 l/m 0 min 0 min 0 W/m 8,4 km/h (2 Bft) 95,65 %
04.01.2016 20:30 6,6 C 6,7 C 5,0 C 98 % 15 lf 989,9 hPa 0,0 l/m 0 min 0 min 0 W/m 10,5 km/h (2 Bft) 100,00 %
04.01.2016 20:32 6,6 C 6,7 C 5,0 C 98 % 15 lf 989,9 hPa 0,0 l/m 0 min 0 min 0 W/m 6,3 km/h (2 Bft) 95,74 %
04.01.2016 20:34 6,6 C 6,7 C 5,0 C 97 % 15 lf 989,9 hPa 0,0 l/m 0 min 0 min 0 W/m 10,5 km/h (2 Bft) 97,87 %
04.01.2016 20:36 6,6 C 6,7 C 5,0 C 97 % 15 lf 989,9 hPa 0,0 l/m 0 min 0 min 0 W/m 8,4 km/h (2 Bft) 95,74 %
04.01.2016 20:38 6,6 C 6,7 C 5,0 C 97 % 15 lf 989,9 hPa 0,0 l/m 0 min 0 min 0 W/m 6,3 km/h (2 Bft) 93,62 %
04.01.2016 20:40 6,6 C 6,7 C 5,0 C 97 % 15 lf 990,0 hPa 0,0 l/m 0 min 0 min 0 W/m 8,4 km/h (2 Bft) 95,65 %
04.01.2016 20:42 6,6 C 6,7 C 5,0 C 97 % 15 lf 989,9 hPa 0,0 l/m 0 min 0 min 0 W/m 10,5 km/h (2 Bft) 97,87 %
04.01.2016 20:44 6,6 C 6,7 C 5,0 C 97 % 15 lf 990,0 hPa 0,0 l/m 0 min 0 min 0 W/m 6,3 km/h (2 Bft) 97,87 %
04.01.2016 20:46 6,6 C 6,1 C 5,0 C 97 % 15 lf 990,0 hPa 0,0 l/m 0 min 0 min 0 W/m 8,4 km/h (2 Bft) 97,87 %
04.01.2016 20:48 6,6 C 6,1 C 5,0 C 97 % 15 lf 990,0 hPa 0,0 l/m 0 min 0 min 0 W/m 10,5 km/h (2 Bft) 95,74 %
04.01.2016 20:50 6,5 C 6,7 C 5,0 C 97 % 15 lf 990,0 hPa 0,0 l/m 0 min 0 min 0 W/m 6,3 km/h (2 Bft) 97,87 %
04.01.2016 20:52 6,5 C 6,7 C 5,0 C 97 % 15 lf 990,0 hPa 0,0 l/m 0 min 0 min 0 W/m 8,4 km/h (2 Bft) 93,48 %
04.01.2016 20:54 6,5 C 6,7 C 5,0 C 97 % 15 lf 990,0 hPa 0,0 l/m 0 min 0 min 0 W/m 10,5 km/h (2 Bft) 97,87 %
04.01.2016 20:56 6,5 C 6,7 C 5,0 C 97 % 15 lf 990,1 hPa 0,0 l/m 0 min 0 min 0 W/m 10,5 km/h (2 Bft) 97,87 %
04.01.2016 20:58 6,5 C 6,7 C 5,0 C 97 % 15 lf 990,1 hPa 0,0 l/m 0 min 0 min 0 W/m 8,4 km/h (2 Bft) 97,87 %
04.01.2016 21:00 6,5 C 6,1 C 5,0 C 97 % 15 lf 990,1 hPa 0,0 l/m 0 min 0 min 0 W/m 10,5 km/h (2 Bft) 94,00 %
04.01.2016 21:02 6,5 C 6,1 C 5,0 C 97 % 15 lf 990,0 hPa 0,0 l/m 0 min 0 min 0 W/m 8,4 km/h (2 Bft) 95,92 %
04.01.2016 21:04 6,5 C 6,1 C 5,0 C 97 % 15 lf 990,0 hPa 0,0 l/m 0 min 0 min 0 W/m 10,5 km/h (2 Bft) 95,65 %
04.01.2016 21:06 6,5 C 6,1 C 5,0 C 97 % 15 lf 990,0 hPa 0,0 l/m 0 min 0 min 0 W/m 14,6 km/h (3 Bft) 97,87 %
04.01.2016 21:08 6,5 C 6,1 C 5,0 C 97 % 15 lf 989,9 hPa 0,0 l/m 0 min 0 min 0 W/m 16,7 km/h (3 Bft) 97,87 %
04.01.2016 21:10 6,4 C 6,1 C 5,0 C 97 % 15 lf 989,9 hPa 0,0 l/m 0 min 0 min 0 W/m 10,5 km/h (2 Bft) 97,87 %
04.01.2016 21:12 6,4 C 6,1 C 5,0 C 97 % 15 lf 989,9 hPa 0,0 l/m 0 min 0 min 0 W/m 10,5 km/h (2 Bft) 97,87 %
04.01.2016 21:14 6,4 C 6,1 C 5,0 C 97 % 15 lf 989,9 hPa 0,0 l/m 0 min 0 min 0 W/m 10,5 km/h (2 Bft) 95,74 %
04.01.2016 21:16 6,4 C 6,1 C 4,4 C 97 % 15 lf 990,0 hPa 0,0 l/m 0 min 0 min 0 W/m 10,5 km/h (2 Bft) 93,48 %
04.01.2016 21:18 6,4 C 6,1 C 4,4 C 97 % 15 lf 990,0 hPa 0,0 l/m 0 min 0 min 0 W/m 6,3 km/h (2 Bft) 97,87 %
04.01.2016 21:20 6,4 C 6,1 C 4,4 C 97 % 15 lf 990,0 hPa 0,0 l/m 0 min 0 min 0 W/m 10,5 km/h (2 Bft) 95,74 %
04.01.2016 21:22 6,4 C 6,1 C 4,4 C 97 % 15 lf 990,0 hPa 0,0 l/m 0 min 0 min 0 W/m 8,4 km/h (2 Bft) 97,87 %
04.01.2016 21:24 6,4 C 6,1 C 4,4 C 97 % 15 lf 990,0 hPa 0,0 l/m 0 min 0 min 0 W/m 6,3 km/h (2 Bft) 95,74 %
04.01.2016 21:26 6,4 C 6,1 C 4,4 C 97 % 15 lf 990,0 hPa 0,0 l/m 0 min 0 min 0 W/m 6,3 km/h (2 Bft) 93,62 %
04.01.2016 21:28 6,4 C 6,1 C 4,4 C 97 % 15 lf 990,0 hPa 0,0 l/m 0 min 0 min 0 W/m 8,4 km/h (2 Bft) 89,13 %
04.01.2016 21:30 6,4 C 6,1 C 4,4 C 97 % 15 lf 990,1 hPa 0,0 l/m 0 min 0 min 0 W/m 6,3 km/h (2 Bft) 95,74 %
04.01.2016 21:32 6,4 C 6,1 C 3,9 C 97 % 15 lf 990,1 hPa 0,0 l/m 0 min 0 min 0 W/m 6,3 km/h (2 Bft) 93,62 %
04.01.2016 21:34 6,3 C 5,6 C 3,9 C 97 % 15 lf 990,1 hPa 0,0 l/m 0 min 0 min 0 W/m 6,3 km/h (2 Bft) 95,74 %
04.01.2016 21:36 6,3 C 5,6 C 3,9 C 97 % 15 lf 990,1 hPa 0,0 l/m 0 min 0 min 0 W/m 6,3 km/h (2 Bft) 93,62 %
04.01.2016 21:38 6,3 C 5,6 C 3,9 C 97 % 15 lf 990,1 hPa 0,0 l/m 0 min 0 min 0 W/m 4,2 km/h (1 Bft) 97,87 %
04.01.2016 21:40 6,3 C 5,6 C 3,9 C 97 % 15 lf 990,1 hPa 0,0 l/m 0 min 0 min 0 W/m 6,3 km/h (2 Bft) 95,65 %
04.01.2016 21:42 6,2 C 5,6 C 3,9 C 97 % 15 lf 990,1 hPa 0,0 l/m 0 min 0 min 0 W/m 6,3 km/h (2 Bft) 93,62 %
04.01.2016 21:44 6,2 C 5,6 C 3,9 C 97 % 15 lf 990,0 hPa 0,0 l/m 0 min 0 min 0 W/m 8,4 km/h (2 Bft) 95,74 %
04.01.2016 21:46 6,2 C 5,6 C 3,9 C 97 % 15 lf 990,1 hPa 0,0 l/m 0 min 0 min 0 W/m 4,2 km/h (1 Bft) 91,49 %
04.01.2016 21:48 6,2 C 5,6 C 3,3 C 97 % 15 lf 990,1 hPa 0,0 l/m 0 min 0 min 0 W/m 8,4 km/h (2 Bft) 93,62 %
04.01.2016 21:50 6,1 C 5,6 C 3,3 C 97 % 15 lf 990,1 hPa 0,0 l/m 0 min 0 min 0 W/m 8,4 km/h (2 Bft) 95,74 %
04.01.2016 21:52 6,1 C 5,0 C 3,3 C 97 % 15 lf 990,2 hPa 0,0 l/m 0 min 0 min 0 W/m 6,3 km/h (2 Bft) 95,65 %
04.01.2016 21:54 6,1 C 5,0 C 3,3 C 97 % 15 lf 990,1 hPa 0,0 l/m 0 min 0 min 0 W/m 6,3 km/h (2 Bft) 95,74 %
04.01.2016 21:56 6,1 C 5,0 C 3,3 C 97 % 15 lf 990,2 hPa 0,0 l/m 0 min 0 min 0 W/m 6,3 km/h (2 Bft) 93,62 %
04.01.2016 21:58 6,0 C 5,0 C 3,3 C 97 % 15 lf 990,2 hPa 0,0 l/m 0 min 0 min 0 W/m 8,4 km/h (2 Bft) 95,74 %
04.01.2016 22:00 6,0 C 5,6 C 3,3 C 97 % 15 lf 990,2 hPa 0,0 l/m 0 min 0 min 0 W/m 8,4 km/h (2 Bft) 90,48 %
04.01.2016 22:02 5,9 C 5,6 C 3,3 C 97 % 15 lf 990,2 hPa 0,0 l/m 0 min 0 min 0 W/m 8,4 km/h (2 Bft) 97,96 %
04.01.2016 22:04 5,9 C 5,6 C 3,3 C 97 % 15 lf 990,1 hPa 0,0 l/m 0 min 0 min 0 W/m 8,4 km/h (2 Bft) 97,96 %
04.01.2016 22:06 5,9 C 5,6 C 3,9 C 97 % 15 lf 990,2 hPa 0,0 l/m 0 min 0 min 0 W/m 8,4 km/h (2 Bft) 95,74 %
04.01.2016 22:08 5,8 C 5,6 C 3,9 C 97 % 15 lf 990,2 hPa 0,0 l/m 0 min 0 min 0 W/m 8,4 km/h (2 Bft) 97,87 %
04.01.2016 22:10 5,8 C 5,6 C 3,9 C 97 % 15 lf 990,2 hPa 0,0 l/m 0 min 0 min 0 W/m 8,4 km/h (2 Bft) 95,74 %
04.01.2016 22:12 5,8 C 5,6 C 3,9 C 97 % 15 lf 990,2 hPa 0,0 l/m 0 min 0 min 0 W/m 8,4 km/h (2 Bft) 97,87 %
04.01.2016 22:14 5,8 C 5,6 C 3,9 C 97 % 15 lf 990,2 hPa 0,0 l/m 0 min 2 min 0 W/m 8,4 km/h (2 Bft) 100,00 %
04.01.2016 22:16 5,7 C 5,6 C 3,9 C 97 % 15 lf 990,2 hPa 0,0 l/m 0 min 0 min 0 W/m 10,5 km/h (2 Bft) 95,74 %
04.01.2016 22:18 5,7 C 5,6 C 3,9 C 97 % 15 lf 990,2 hPa 0,0 l/m 0 min 0 min 0 W/m 8,4 km/h (2 Bft) 97,87 %
04.01.2016 22:20 5,7 C 5,6 C 3,9 C 96 % 15 lf 990,1 hPa 0,0 l/m 0 min 0 min 0 W/m 4,2 km/h (1 Bft) 95,74 %
04.01.2016 22:22 5,7 C 5,6 C 3,9 C 96 % 15 lf 990,1 hPa 0,0 l/m 0 min 0 min 0 W/m 4,2 km/h (1 Bft) 95,74 %
04.01.2016 22:24 5,7 C 5,6 C 3,9 C 96 % 15 lf 990,1 hPa 0,0 l/m 0 min 0 min 0 W/m 6,3 km/h (2 Bft) 91,49 %
04.01.2016 22:26 5,7 C 5,6 C 3,9 C 96 % 15 lf 990,1 hPa 0,0 l/m 0 min 0 min 0 W/m 8,4 km/h (2 Bft) 95,65 %
04.01.2016 22:28 5,7 C 5,6 C 3,9 C 96 % 15 lf 990,1 hPa 0,0 l/m 0 min 0 min 0 W/m 8,4 km/h (2 Bft) 93,62 %
04.01.2016 22:30 5,7 C 5,6 C 3,9 C 96 % 15 lf 990,1 hPa 0,0 l/m 0 min 0 min 0 W/m 6,3 km/h (2 Bft) 95,74 %
04.01.2016 22:32 5,7 C 5,6 C 3,9 C 96 % 15 lf 990,1 hPa 0,0 l/m 0 min 0 min 0 W/m 6,3 km/h (2 Bft) 93,62 %
04.01.2016 22:34 5,7 C 5,6 C 3,9 C 96 % 15 lf 990,2 hPa 0,0 l/m 0 min 0 min 0 W/m 8,4 km/h (2 Bft) 95,74 %
04.01.2016 22:36 5,7 C 5,6 C 3,9 C 96 % 15 lf 990,1 hPa 0,0 l/m 0 min 0 min 0 W/m 6,3 km/h (2 Bft) 95,74 %
04.01.2016 22:38 5,6 C 5,6 C 3,9 C 96 % 14 lf 990,1 hPa 0,0 l/m 0 min 0 min 0 W/m 6,3 km/h (2 Bft) 97,87 %
04.01.2016 22:40 5,6 C 5,6 C 3,9 C 96 % 15 lf 990,2 hPa 0,0 l/m 0 min 0 min 0 W/m 8,4 km/h (2 Bft) 95,74 %
04.01.2016 22:42 5,6 C 5,6 C 3,9 C 96 % 15 lf 990,2 hPa 0,0 l/m 0 min 0 min 0 W/m 6,3 km/h (2 Bft) 97,87 %
04.01.2016 22:44 5,6 C 5,6 C 3,9 C 96 % 14 lf 990,1 hPa 0,0 l/m 0 min 0 min 0 W/m 12,6 km/h (3 Bft) 97,87 %
04.01.2016 22:46 5,6 C 5,6 C 3,9 C 96 % 14 lf 990,1 hPa 0,0 l/m 0 min 0 min 0 W/m 8,4 km/h (2 Bft) 95,74 %
04.01.2016 22:48 5,6 C 5,6 C 3,9 C 96 % 14 lf 990,2 hPa 0,0 l/m 0 min 0 min 0 W/m 8,4 km/h (2 Bft) 97,83 %
04.01.2016 22:50 5,6 C 5,6 C 3,9 C 96 % 14 lf 990,1 hPa 0,0 l/m 0 min 0 min 0 W/m 8,4 km/h (2 Bft) 93,62 %
04.01.2016 22:52 5,6 C 5,6 C 3,9 C 96 % 14 lf 990,2 hPa 0,0 l/m 0 min 0 min 0 W/m 8,4 km/h (2 Bft) 95,74 %
04.01.2016 22:54 5,6 C 5,6 C 3,9 C 96 % 14 lf 990,1 hPa 0,0 l/m 0 min 0 min 0 W/m 8,4 km/h (2 Bft) 95,74 %
04.01.2016 22:56 5,6 C 5,6 C 3,9 C 96 % 14 lf 990,1 hPa 0,0 l/m 0 min 0 min 0 W/m 8,4 km/h (2 Bft) 95,74 %
04.01.2016 22:58 5,6 C 5,6 C 3,9 C 96 % 14 lf 990,2 hPa 0,0 l/m 0 min 0 min 0 W/m 8,4 km/h (2 Bft) 89,13 %
04.01.2016 23:00 5,6 C 5,6 C 3,9 C 96 % 14 lf 990,1 hPa 0,0 l/m 0 min 0 min 0 W/m 10,5 km/h (2 Bft) 95,92 %
04.01.2016 23:02 5,6 C 5,6 C 3,9 C 96 % 14 lf 990,1 hPa 0,0 l/m 0 min 0 min 0 W/m 6,3 km/h (2 Bft) 95,74 %
04.01.2016 23:04 5,6 C 5,6 C 3,3 C 96 % 14 lf 990,1 hPa 0,0 l/m 0 min 0 min 0 W/m 6,3 km/h (2 Bft) 97,62 %
04.01.2016 23:06 5,6 C 5,0 C 3,3 C 96 % 14 lf 990,1 hPa 0,0 l/m 0 min 0 min 0 W/m 6,3 km/h (2 Bft) 95,74 %
04.01.2016 23:08 5,6 C 5,0 C 3,3 C 96 % 14 lf 990,1 hPa 0,0 l/m 0 min 0 min 0 W/m 6,3 km/h (2 Bft) 95,74 %
04.01.2016 23:10 5,6 C 5,0 C 3,3 C 96 % 14 lf 990,1 hPa 0,0 l/m 0 min 0 min 0 W/m 6,3 km/h (2 Bft) 89,36 %
04.01.2016 23:12 5,6 C 5,0 C 3,3 C 96 % 14 lf 990,1 hPa 0,0 l/m 0 min 0 min 0 W/m 6,3 km/h (2 Bft) 93,48 %
04.01.2016 23:14 5,6 C 5,0 C 3,3 C 96 % 14 lf 990,1 hPa 0,0 l/m 0 min 0 min 0 W/m 6,3 km/h (2 Bft) 95,74 %
04.01.2016 23:16 5,6 C 5,0 C 2,8 C 96 % 15 lf 990,1 hPa 0,0 l/m 0 min 0 min 0 W/m 6,3 km/h (2 Bft) 93,62 %
04.01.2016 23:18 5,5 C 5,0 C 2,8 C 96 % 15 lf 990,1 hPa 0,0 l/m 0 min 0 min 0 W/m 4,2 km/h (1 Bft) 91,49 %
04.01.2016 23:20 5,5 C 4,4 C 2,8 C 96 % 15 lf 990,1 hPa 0,0 l/m 0 min 0 min 0 W/m 4,2 km/h (1 Bft) 93,62 %
04.01.2016 23:22 5,5 C 4,4 C 2,8 C 96 % 15 lf 990,0 hPa 0,0 l/m 0 min 0 min 0 W/m 6,3 km/h (2 Bft) 93,62 %
04.01.2016 23:24 5,4 C 5,0 C 2,8 C 96 % 15 lf 990,1 hPa 0,0 l/m 0 min 0 min 0 W/m 6,3 km/h (2 Bft) 93,48 %
04.01.2016 23:26 5,4 C 5,0 C 2,8 C 96 % 15 lf 990,1 hPa 0,0 l/m 0 min 0 min 0 W/m 4,2 km/h (1 Bft) 93,62 %
04.01.2016 23:28 5,4 C 5,0 C 2,8 C 96 % 15 lf 990,1 hPa 0,0 l/m 0 min 0 min 0 W/m 4,2 km/h (1 Bft) 97,87 %
04.01.2016 23:30 5,4 C 5,0 C 3,3 C 96 % 15 lf 990,1 hPa 0,0 l/m 0 min 0 min 0 W/m 4,2 km/h (1 Bft) 93,62 %
04.01.2016 23:32 5,4 C 5,0 C 3,3 C 96 % 15 lf 990,2 hPa 0,0 l/m 0 min 0 min 0 W/m 4,2 km/h (1 Bft) 87,23 %
04.01.2016 23:34 5,4 C 5,0 C 3,3 C 96 % 15 lf 990,1 hPa 0,0 l/m 0 min 0 min 0 W/m 0,0 km/h (0 Bft) 93,48 %
04.01.2016 23:36 5,3 C 5,0 C 3,3 C 96 % 15 lf 990,1 hPa 0,0 l/m 0 min 0 min 0 W/m 0,0 km/h (0 Bft) 95,74 %
04.01.2016 23:38 5,3 C 5,0 C 3,3 C 96 % 15 lf 990,1 hPa 0,0 l/m 0 min 0 min 0 W/m 4,2 km/h (1 Bft) 95,74 %
04.01.2016 23:40 5,3 C 5,0 C 3,3 C 96 % 15 lf 990,1 hPa 0,0 l/m 0 min 0 min 0 W/m 4,2 km/h (1 Bft) 93,62 %
04.01.2016 23:42 5,3 C 5,0 C 3,3 C 96 % 15 lf 990,1 hPa 0,0 l/m 0 min 0 min 0 W/m 4,2 km/h (1 Bft) 95,74 %
04.01.2016 23:44 5,3 C 5,0 C 3,3 C 96 % 15 lf 990,2 hPa 0,0 l/m 0 min 0 min 0 W/m 2,1 km/h (1 Bft) 91,49 %
04.01.2016 23:46 5,2 C 5,0 C 3,3 C 96 % 15 lf 990,2 hPa 0,0 l/m 0 min 0 min 0 W/m 4,2 km/h (1 Bft) 95,65 %
04.01.2016 23:48 5,2 C 5,0 C 3,9 C 96 % 15 lf 990,2 hPa 0,0 l/m 0 min 0 min 0 W/m 2,1 km/h (1 Bft) 93,62 %
04.01.2016 23:50 5,2 C 5,0 C 3,9 C 96 % 15 lf 990,2 hPa 0,0 l/m 0 min 0 min 0 W/m 2,1 km/h (1 Bft) 91,49 %
04.01.2016 23:52 5,2 C 5,0 C 3,9 C 96 % 15 lf 990,2 hPa 0,0 l/m 0 min 0 min 0 W/m 4,2 km/h (1 Bft) 97,87 %
04.01.2016 23:54 5,2 C 5,6 C 3,9 C 96 % 15 lf 990,2 hPa 0,0 l/m 0 min 0 min 0 W/m 4,2 km/h (1 Bft) 93,62 %
04.01.2016 23:56 5,2 C 5,6 C 3,9 C 96 % 15 lf 990,2 hPa 0,0 l/m 0 min 0 min 0 W/m 6,3 km/h (2 Bft) 95,74 %
04.01.2016 23:58 5,2 C 5,6 C 3,9 C 96 % 15 lf 990,3 hPa 0,0 l/m 0 min 0 min 0 W/m 4,2 km/h (1 Bft) 97,83 %
_ Min-Zeit 05:44 03:36 03:24 00:00 13:14 06:10 - - - - 23:34 05:02
Minimum _ 3,3 C 3,3 C 2,2 C 95 % 0 lf 987,4 hPa - - - - 0,0 km/h (0 Bft) 86,96 %
_ Max-Zeit 13:56 12:46 12:48 11:32 00:00 00:00 00:08 12:46 00:00 12:46 00:24 00:08
Maximum _ 7,4 C 8,3 C 6,7 C 99 % 15 lf 990,3 hPa 0,2 l/m 2 min 2 min 143 W/m 46,0 km/h
O-SO (6 Bft)
100,00 %
Durchschnitt _ 5,3 C 5,3 C 4,0 C 97 % 14 lf 988,9 hPa #7,6 l/m #2 min. #8:55 h 52 W/m 14,3 km/h (3 Bft) 95,89 %
© 2016 W. Hausmann